AUA21 LOWW-VRMM

Flight info

Callsign AUA21
Flight time 8h 38m
Altitude 37000
Route ARSIN DCT NALOX DCT OSDUK DCT AKIKA DCT PINDO UL607 ATV UL995 KEA UL607 PAXIS Y707 OBRAN L321 REXUM M872 PMA Y214 GOKSA/N0479F390 Y214 RAPMA DCT ULONO DCT DAPOL L692 GISKA N569 GOLNI P570 KITAL L894 GOLEM/N0478F410 L894 ELBET ELBET1A
Aircraft B772/H-SDE2E3FGHIJ5LORVWXY/LB1D1

Departure

Time 2026-04-21 21:24
Airport Vienna International Airport (LOWW)

Arrival

Time 2026-04-22 06:03
Airport Velana International Airport (VRMM)
Time Latitude Longitude Altitude Speed Heading
2026-04-21 20:48 48.11820 16.56224 614 ft 0 kts 303°
2026-04-21 21:09 48.11813 16.56241 631 ft 4 kts 303°
2026-04-21 21:09 48.11798 16.56275 628 ft 4 kts 303°
2026-04-21 21:10 48.11784 16.56308 628 ft 4 kts 302°
2026-04-21 21:10 48.11769 16.56343 628 ft 4 kts 302°
2026-04-21 21:10 48.11755 16.56377 628 ft 4 kts 298°
2026-04-21 21:10 48.11749 16.56394 628 ft 0 kts 296°
2026-04-21 21:13 48.11750 16.56393 628 ft 1 kts 296°
2026-04-21 21:13 48.11757 16.56351 628 ft 5 kts 271°
2026-04-21 21:13 48.11736 16.56306 628 ft 7 kts 214°
2026-04-21 21:14 48.11681 16.56264 625 ft 9 kts 207°
2026-04-21 21:14 48.11627 16.56213 624 ft 9 kts 208°
2026-04-21 21:14 48.11587 16.56198 617 ft 9 kts 177°
2026-04-21 21:14 48.11541 16.56259 625 ft 9 kts 117°
2026-04-21 21:15 48.11512 16.56349 624 ft 10 kts 115°
2026-04-21 21:15 48.11483 16.56439 628 ft 10 kts 116°
2026-04-21 21:15 48.11446 16.56552 623 ft 15 kts 116°
2026-04-21 21:15 48.11400 16.56689 626 ft 15 kts 116°
2026-04-21 21:16 48.11356 16.56825 622 ft 15 kts 116°
2026-04-21 21:16 48.11311 16.56963 624 ft 15 kts 115°
2026-04-21 21:16 48.11268 16.57102 623 ft 15 kts 116°
2026-04-21 21:16 48.11221 16.57238 624 ft 14 kts 116°
2026-04-21 21:17 48.11190 16.57333 625 ft 10 kts 116°
2026-04-21 21:17 48.11160 16.57424 622 ft 10 kts 116°
2026-04-21 21:17 48.11127 16.57524 624 ft 7 kts 116°
2026-04-21 21:17 48.11113 16.57568 618 ft 7 kts 116°
2026-04-21 21:18 48.11091 16.57632 623 ft 7 kts 124°
2026-04-21 21:18 48.11047 16.57648 625 ft 7 kts 192°
2026-04-21 21:18 48.11027 16.57636 616 ft 0 kts 204°
2026-04-21 21:22 48.11023 16.57633 625 ft 4 kts 204°
2026-04-21 21:22 48.10973 16.57600 624 ft 13 kts 204°
2026-04-21 21:22 48.10926 16.57514 624 ft 10 kts 275°
2026-04-21 21:23 48.10934 16.57482 615 ft 0 kts 295°
2026-04-21 21:23 48.10961 16.57397 625 ft 26 kts 296°
2026-04-21 21:23 48.11146 16.56819 628 ft 96 kts 296°
2026-04-21 21:24 48.11532 16.55636 624 ft 155 kts 296°
2026-04-21 21:24 48.12036 16.54066 996 ft 172 kts 296°
2026-04-21 21:24 48.12396 16.52316 1540 ft 187 kts 277°
2026-04-21 21:24 48.12141 16.50334 2101 ft 205 kts 245°
2026-04-21 21:25 48.11103 16.48727 2397 ft 232 kts 204°
2026-04-21 21:25 48.09510 16.47906 2576 ft 255 kts 197°
2026-04-21 21:25 48.07781 16.47048 2991 ft 266 kts 189°
2026-04-21 21:25 48.05939 16.47164 3572 ft 267 kts 163°
2026-04-21 21:26 48.04102 16.47775 4221 ft 274 kts 168°
2026-04-21 21:26 48.02217 16.48202 5113 ft 274 kts 170°
2026-04-21 21:26 48.00322 16.48569 5956 ft 276 kts 171°
2026-04-21 21:26 47.98411 16.48924 6743 ft 279 kts 172°
2026-04-21 21:27 47.96497 16.48826 7275 ft 285 kts 198°
2026-04-21 21:27 47.94733 16.47516 7869 ft 285 kts 211°
2026-04-21 21:27 47.92997 16.46088 8527 ft 290 kts 208°
2026-04-21 21:27 47.91212 16.44698 9351 ft 291 kts 208°
2026-04-21 21:28 47.89396 16.43300 10065 ft 294 kts 206°
2026-04-21 21:28 47.87408 16.42502 10381 ft 308 kts 178°
2026-04-21 21:28 47.83040 16.44081 10799 ft 341 kts 163°
2026-04-21 21:29 47.80717 16.45039 11329 ft 351 kts 164°
2026-04-21 21:29 47.78343 16.46000 12097 ft 354 kts 165°
2026-04-21 21:29 47.75960 16.46954 12979 ft 355 kts 165°
2026-04-21 21:29 47.73554 16.47909 13703 ft 361 kts 165°
2026-04-21 21:30 47.71111 16.48874 14384 ft 366 kts 166°
2026-04-21 21:30 47.68633 16.49850 15035 ft 371 kts 166°
2026-04-21 21:30 47.66146 16.50886 15685 ft 369 kts 160°
2026-04-21 21:30 47.63928 16.52846 16117 ft 379 kts 135°
2026-04-21 21:31 47.62361 16.55984 16767 ft 380 kts 115°
2026-04-21 21:31 47.61305 16.59568 17358 ft 382 kts 111°
2026-04-21 21:31 47.60270 16.63234 17910 ft 388 kts 112°
2026-04-21 21:31 47.59203 16.66919 18590 ft 390 kts 112°
2026-04-21 21:32 47.58065 16.70562 19079 ft 390 kts 120°
2026-04-21 21:32 47.56258 16.73587 19389 ft 399 kts 145°
2026-04-21 21:32 47.53782 16.75428 19899 ft 400 kts 164°
2026-04-21 21:32 47.51061 16.76125 20445 ft 396 kts 178°
2026-04-21 21:33 47.48289 16.76377 20859 ft 402 kts 179°
2026-04-21 21:33 47.45512 16.76596 21376 ft 405 kts 179°
2026-04-21 21:33 47.42690 16.76816 21913 ft 407 kts 179°
2026-04-21 21:33 47.39856 16.77048 22457 ft 409 kts 179°
2026-04-21 21:34 47.37006 16.77295 22983 ft 412 kts 179°
2026-04-21 21:34 47.34138 16.77553 23496 ft 415 kts 179°
2026-04-21 21:34 47.31244 16.77822 23953 ft 418 kts 179°
2026-04-21 21:34 47.28332 16.78097 24370 ft 421 kts 179°
2026-04-21 21:35 47.25397 16.78375 24772 ft 424 kts 179°
2026-04-21 21:35 47.22485 16.78652 25166 ft 427 kts 179°
2026-04-21 21:35 47.19507 16.78935 25563 ft 430 kts 179°
2026-04-21 21:35 47.16505 16.79220 25929 ft 434 kts 179°
2026-04-21 21:36 47.13479 16.79506 26312 ft 438 kts 179°
2026-04-21 21:36 47.10432 16.79794 26731 ft 440 kts 179°
2026-04-21 21:36 47.07366 16.80084 27150 ft 443 kts 179°
2026-04-21 21:36 47.04280 16.80375 27547 ft 446 kts 179°
2026-04-21 21:37 47.01175 16.80668 27948 ft 449 kts 179°
2026-04-21 21:37 46.98044 16.80963 28317 ft 452 kts 179°
2026-04-21 21:37 46.94896 16.81259 28666 ft 456 kts 179°
2026-04-21 21:37 46.91721 16.81562 29037 ft 457 kts 178°
2026-04-21 21:38 46.88564 16.82351 29297 ft 467 kts 166°
2026-04-21 21:38 46.85543 16.84177 29632 ft 474 kts 153°
2026-04-21 21:38 46.82804 16.86891 30016 ft 476 kts 141°
2026-04-21 21:38 46.80297 16.90080 30300 ft 481 kts 140°
2026-04-21 21:39 46.77773 16.93310 30569 ft 484 kts 140°
2026-04-21 21:39 46.75233 16.96538 30919 ft 485 kts 140°
2026-04-21 21:39 46.72673 16.99763 31193 ft 488 kts 141°
2026-04-21 21:39 46.70088 17.02990 31445 ft 491 kts 141°
2026-04-21 21:40 46.67477 17.06229 31708 ft 494 kts 141°
2026-04-21 21:40 46.64849 17.09474 31974 ft 497 kts 141°
2026-04-21 21:40 46.62205 17.12732 32232 ft 499 kts 141°
2026-04-21 21:40 46.59549 17.15999 32468 ft 502 kts 141°
2026-04-21 21:41 46.56910 17.19239 32704 ft 504 kts 141°
2026-04-21 21:41 46.54224 17.22536 32936 ft 506 kts 141°
2026-04-21 21:41 46.51527 17.25843 33165 ft 508 kts 141°
2026-04-21 21:41 46.48821 17.29157 33386 ft 510 kts 141°
2026-04-21 21:42 46.46103 17.32481 33601 ft 512 kts 142°
2026-04-21 21:42 46.43377 17.35811 33868 ft 513 kts 142°
2026-04-21 21:42 46.40652 17.39135 34155 ft 512 kts 142°
2026-04-21 21:42 46.37924 17.42458 34408 ft 512 kts 142°
2026-04-21 21:43 46.35198 17.45775 34671 ft 512 kts 142°
2026-04-21 21:43 46.32475 17.49082 34919 ft 512 kts 142°
2026-04-21 21:43 46.29745 17.52394 35143 ft 512 kts 142°
2026-04-21 21:43 46.27016 17.55701 35381 ft 512 kts 142°
2026-04-21 21:44 46.24287 17.59002 35635 ft 511 kts 142°
2026-04-21 21:44 46.21559 17.62298 35863 ft 511 kts 142°
2026-04-21 21:44 46.18826 17.65596 36018 ft 513 kts 142°
2026-04-21 21:44 46.16084 17.68899 36219 ft 514 kts 142°
2026-04-21 21:45 46.13338 17.72204 36455 ft 513 kts 142°
2026-04-21 21:45 46.10600 17.75495 36717 ft 513 kts 142°
2026-04-21 21:45 46.07862 17.78782 36948 ft 512 kts 142°
2026-04-21 21:45 46.05118 17.82070 37057 ft 515 kts 142°
2026-04-21 21:46 46.02358 17.85373 37100 ft 517 kts 142°
2026-04-21 21:46 45.96818 17.91992 37116 ft 517 kts 142°
2026-04-21 21:47 45.91308 17.98560 37129 ft 513 kts 143°
2026-04-21 21:47 45.85824 18.05078 37129 ft 511 kts 143°
2026-04-21 21:48 45.80208 18.11264 37116 ft 506 kts 152°
2026-04-21 21:48 45.73968 18.15796 37105 ft 501 kts 163°
2026-04-21 21:49 45.67387 18.18944 37116 ft 499 kts 166°
2026-04-21 21:49 45.60766 18.22017 37120 ft 501 kts 166°
2026-04-21 21:50 45.54166 18.25120 37118 ft 504 kts 166°
2026-04-21 21:50 45.47507 18.28275 37094 ft 505 kts 166°
2026-04-21 21:51 45.40834 18.31436 37108 ft 506 kts 166°
2026-04-21 21:51 45.34153 18.34590 37109 ft 506 kts 166°
2026-04-21 21:52 45.27461 18.37740 37109 ft 506 kts 166°
2026-04-21 21:52 45.20777 18.40877 37109 ft 506 kts 166°
2026-04-21 21:53 45.14100 18.44004 37099 ft 505 kts 166°
2026-04-21 21:53 45.07438 18.47116 37102 ft 504 kts 166°
2026-04-21 21:54 45.00787 18.50216 37101 ft 502 kts 167°
2026-04-21 21:54 44.94154 18.53299 37099 ft 502 kts 167°
2026-04-21 21:55 44.87526 18.56371 37100 ft 502 kts 167°
2026-04-21 21:55 44.80891 18.59439 37087 ft 502 kts 167°
2026-04-21 21:56 44.74260 18.62498 37102 ft 502 kts 167°
2026-04-21 21:56 44.67612 18.65559 37105 ft 503 kts 167°
2026-04-21 21:57 44.60959 18.68613 37071 ft 503 kts 167°
2026-04-21 21:57 44.54302 18.71664 37098 ft 504 kts 167°
2026-04-21 21:58 44.47625 18.74714 37105 ft 505 kts 167°
2026-04-21 21:58 44.40936 18.77764 37102 ft 506 kts 167°
2026-04-21 21:59 44.34234 18.80810 37094 ft 507 kts 168°
2026-04-21 21:59 44.27523 18.83855 37096 ft 507 kts 168°
2026-04-21 22:00 44.20805 18.86898 37104 ft 508 kts 168°
2026-04-21 22:00 44.14125 18.89914 37109 ft 508 kts 168°
2026-04-21 22:01 44.07351 18.92964 37101 ft 509 kts 168°
2026-04-21 22:01 44.00659 18.95970 37094 ft 509 kts 168°
2026-04-21 22:02 43.93920 18.98991 37087 ft 508 kts 168°
2026-04-21 22:02 43.87191 19.02002 37070 ft 508 kts 168°
2026-04-21 22:03 43.80478 19.04996 37089 ft 506 kts 168°
2026-04-21 22:03 43.73774 19.07982 37062 ft 506 kts 168°
2026-04-21 22:04 43.67082 19.10954 37073 ft 505 kts 168°
2026-04-21 22:04 43.60400 19.13916 37080 ft 504 kts 168°
2026-04-21 22:05 43.54848 19.16367 37049 ft 504 kts 168°
2026-04-21 22:05 43.48186 19.19306 37068 ft 502 kts 168°
2026-04-21 22:06 43.41530 19.22235 37075 ft 502 kts 168°
2026-04-21 22:06 43.34880 19.25153 37057 ft 501 kts 168°
2026-04-21 22:07 43.28245 19.28061 37060 ft 500 kts 168°
2026-04-21 22:07 43.21614 19.30960 37064 ft 500 kts 168°
2026-04-21 22:08 43.14992 19.33848 37057 ft 499 kts 168°
2026-04-21 22:08 43.08375 19.36727 37058 ft 498 kts 169°
2026-04-21 22:09 43.01789 19.39592 37135 ft 497 kts 168°
2026-04-21 22:09 42.95173 19.42450 37083 ft 500 kts 169°
2026-04-21 22:10 42.88544 19.45312 37072 ft 500 kts 169°
2026-04-21 22:10 42.81915 19.48173 37064 ft 500 kts 169°
2026-04-21 22:11 42.75283 19.51028 37062 ft 500 kts 169°
2026-04-21 22:11 42.68653 19.53873 37060 ft 499 kts 168°
2026-04-21 22:12 42.62034 19.56712 37044 ft 499 kts 169°
2026-04-21 22:12 42.55419 19.59544 37033 ft 498 kts 168°
2026-04-21 22:13 42.49007 19.63236 37041 ft 503 kts 158°
2026-04-21 22:13 42.42780 19.67575 37044 ft 503 kts 158°
2026-04-21 22:14 42.36541 19.71865 37032 ft 503 kts 159°
2026-04-21 22:14 42.30345 19.76076 37020 ft 501 kts 159°
2026-04-21 22:15 42.24105 19.80288 37033 ft 501 kts 159°
2026-04-21 22:15 42.17834 19.84513 37025 ft 506 kts 159°
2026-04-21 22:16 42.11514 19.88764 37021 ft 509 kts 159°
2026-04-21 22:16 42.05161 19.93031 36987 ft 511 kts 159°
2026-04-21 22:17 41.98795 19.97300 37006 ft 511 kts 159°
2026-04-21 22:17 41.92433 20.01556 37008 ft 510 kts 159°
2026-04-21 22:18 41.86083 20.05795 36981 ft 509 kts 159°
2026-04-21 22:18 41.79744 20.10015 36988 ft 509 kts 159°
2026-04-21 22:19 41.73406 20.14221 36982 ft 508 kts 159°
2026-04-21 22:19 41.67062 20.18426 36971 ft 509 kts 159°
2026-04-21 22:20 41.60704 20.22630 36947 ft 510 kts 159°
2026-04-21 22:20 41.54341 20.26827 36972 ft 511 kts 159°
2026-04-21 22:21 41.47966 20.31024 36968 ft 511 kts 159°
2026-04-21 22:21 41.41629 20.35189 36958 ft 511 kts 159°
2026-04-21 22:22 41.35250 20.39370 36966 ft 510 kts 159°
2026-04-21 22:22 41.28879 20.43537 36961 ft 510 kts 159°
2026-04-21 22:23 41.22512 20.47693 36953 ft 510 kts 159°
2026-04-21 22:23 41.16139 20.51840 36955 ft 510 kts 159°
2026-04-21 22:24 41.09785 20.55973 36957 ft 507 kts 159°
2026-04-21 22:24 41.03466 20.60072 36967 ft 505 kts 159°
2026-04-21 22:25 40.97167 20.64146 36955 ft 503 kts 159°
2026-04-21 22:25 40.90885 20.68201 36964 ft 502 kts 159°
2026-04-21 22:26 40.84601 20.72248 36967 ft 503 kts 159°
2026-04-21 22:26 40.78309 20.76293 36969 ft 503 kts 159°
2026-04-21 22:27 40.72011 20.80333 36967 ft 504 kts 159°
2026-04-21 22:27 40.65704 20.84372 36954 ft 504 kts 159°
2026-04-21 22:28 40.59392 20.88403 36964 ft 503 kts 159°
2026-04-21 22:28 40.53090 20.92424 36960 ft 504 kts 159°
2026-04-21 22:29 40.46993 20.97034 36960 ft 509 kts 148°
2026-04-21 22:29 40.41530 21.03014 36977 ft 512 kts 142°
2026-04-21 22:30 40.36222 21.09249 36967 ft 512 kts 142°
2026-04-21 22:30 40.30886 21.15434 36974 ft 511 kts 142°
2026-04-21 22:31 40.25570 21.21537 36977 ft 512 kts 142°
2026-04-21 22:31 40.20201 21.27678 36975 ft 513 kts 142°
2026-04-21 22:32 40.14824 21.33818 36968 ft 514 kts 142°
2026-04-21 22:32 40.09434 21.39963 36970 ft 514 kts 143°
2026-04-21 22:33 40.04037 21.46104 36970 ft 515 kts 143°
2026-04-21 22:33 39.98630 21.52244 36961 ft 516 kts 143°
2026-04-21 22:34 39.93217 21.58373 36964 ft 515 kts 143°
2026-04-21 22:34 39.87800 21.64485 36961 ft 515 kts 143°
2026-04-21 22:35 39.82385 21.70583 36966 ft 515 kts 143°
2026-04-21 22:35 39.76967 21.76674 36966 ft 515 kts 143°
2026-04-21 22:36 39.68824 21.85807 36952 ft 516 kts 143°
2026-04-21 22:36 39.63423 21.91848 36940 ft 516 kts 143°
2026-04-21 22:37 39.57975 21.97927 36950 ft 517 kts 143°
2026-04-21 22:37 39.52514 22.04008 36952 ft 518 kts 143°
2026-04-21 22:38 39.47037 22.10094 36944 ft 519 kts 143°
2026-04-21 22:38 39.41552 22.16177 36942 ft 520 kts 143°
2026-04-21 22:39 39.36056 22.22259 36931 ft 520 kts 143°
2026-04-21 22:39 39.30558 22.28329 36947 ft 520 kts 143°
2026-04-21 22:40 39.25057 22.34390 36955 ft 520 kts 143°
2026-04-21 22:40 39.19551 22.40443 36945 ft 520 kts 143°
2026-04-21 22:41 39.14076 22.46449 36940 ft 520 kts 143°
2026-04-21 22:41 39.08538 22.52513 36943 ft 518 kts 143°
2026-04-21 22:42 39.03049 22.58508 36953 ft 518 kts 143°
2026-04-21 22:42 38.97562 22.64489 36959 ft 516 kts 143°
2026-04-21 22:43 38.92082 22.70451 36951 ft 516 kts 143°
2026-04-21 22:43 38.86603 22.76398 36938 ft 516 kts 143°
2026-04-21 22:44 38.81124 22.82334 36929 ft 515 kts 143°
2026-04-21 22:44 38.75688 22.88210 36941 ft 515 kts 144°
2026-04-21 22:45 38.70208 22.94121 36947 ft 515 kts 144°
2026-04-21 22:45 38.64718 23.00031 36940 ft 516 kts 144°
2026-04-21 22:46 38.59228 23.05929 36945 ft 516 kts 144°
2026-04-21 22:46 38.53728 23.11824 36930 ft 516 kts 144°
2026-04-21 22:47 38.48214 23.17723 36935 ft 517 kts 144°
2026-04-21 22:47 38.42690 23.23623 36944 ft 518 kts 144°
2026-04-21 22:48 38.37153 23.29523 36933 ft 519 kts 144°
2026-04-21 22:48 38.31607 23.35420 36945 ft 520 kts 144°
2026-04-21 22:49 38.26049 23.41317 36938 ft 520 kts 144°
2026-04-21 22:49 38.20491 23.47207 36942 ft 520 kts 144°
2026-04-21 22:50 38.14931 23.53081 36941 ft 519 kts 144°
2026-04-21 22:50 38.09373 23.58932 36938 ft 519 kts 144°
2026-04-21 22:51 38.03853 23.64734 36940 ft 518 kts 144°
2026-04-21 22:51 37.98309 23.70553 36924 ft 517 kts 144°
2026-04-21 22:52 37.92769 23.76353 36944 ft 516 kts 144°
2026-04-21 22:52 37.87425 23.82445 36968 ft 520 kts 135°
2026-04-21 22:53 37.82765 23.89451 36965 ft 520 kts 132°
2026-04-21 22:53 37.78146 23.96491 36966 ft 520 kts 133°
2026-04-21 22:54 37.73486 24.03479 36936 ft 520 kts 133°
2026-04-21 22:54 37.68810 24.10438 36935 ft 519 kts 133°
2026-04-21 22:55 37.64142 24.17378 36943 ft 518 kts 133°
2026-04-21 22:55 37.60264 24.23137 36941 ft 518 kts 133°
2026-04-21 22:56 37.55285 24.29657 36938 ft 514 kts 143°
2026-04-21 22:56 37.49525 24.34905 36941 ft 509 kts 153°
2026-04-21 22:57 37.43481 24.39550 36952 ft 509 kts 153°
2026-04-21 22:57 37.37443 24.44224 36939 ft 510 kts 152°
2026-04-21 22:58 37.31425 24.48926 36951 ft 509 kts 152°
2026-04-21 22:58 37.25411 24.53630 36952 ft 509 kts 152°
2026-04-21 22:59 37.19394 24.58325 36957 ft 509 kts 152°
2026-04-21 22:59 37.13377 24.63008 36941 ft 509 kts 152°
2026-04-21 23:00 37.07363 24.67679 36959 ft 508 kts 152°
2026-04-21 23:00 37.01356 24.72337 36966 ft 508 kts 152°
2026-04-21 23:01 36.95390 24.76956 36966 ft 508 kts 152°
2026-04-21 23:01 36.89386 24.81599 36964 ft 508 kts 152°
2026-04-21 23:02 36.83393 24.86254 36963 ft 507 kts 152°
2026-04-21 23:02 36.77411 24.90897 36968 ft 506 kts 152°
2026-04-21 23:03 36.71434 24.95522 36971 ft 506 kts 152°
2026-04-21 23:03 36.65450 25.00124 36977 ft 505 kts 152°
2026-04-21 23:04 36.59462 25.04699 36967 ft 505 kts 152°
2026-04-21 23:04 36.53478 25.09264 36980 ft 504 kts 152°
2026-04-21 23:05 36.47494 25.13826 36978 ft 504 kts 152°
2026-04-21 23:05 36.41513 25.18379 36983 ft 504 kts 152°
2026-04-21 23:06 36.35524 25.22929 36984 ft 505 kts 152°
2026-04-21 23:06 36.29579 25.27438 36997 ft 504 kts 152°
2026-04-21 23:07 36.23592 25.31970 36972 ft 504 kts 152°
2026-04-21 23:07 36.17608 25.36494 36984 ft 504 kts 153°
2026-04-21 23:08 36.11628 25.41005 36989 ft 503 kts 153°
2026-04-21 23:08 36.05657 25.45502 36981 ft 502 kts 153°
2026-04-21 23:09 35.99697 25.49987 36994 ft 501 kts 153°
2026-04-21 23:09 35.93744 25.54460 37002 ft 501 kts 153°
2026-04-21 23:10 35.87791 25.58925 36999 ft 501 kts 153°
2026-04-21 23:10 35.81838 25.63381 37001 ft 501 kts 153°
2026-04-21 23:11 35.75882 25.67833 36992 ft 500 kts 153°
2026-04-21 23:11 35.69930 25.72273 37001 ft 500 kts 153°
2026-04-21 23:12 35.63978 25.76705 37003 ft 500 kts 153°
2026-04-21 23:12 35.58026 25.81130 37002 ft 500 kts 153°
2026-04-21 23:13 35.52108 25.85521 37005 ft 500 kts 153°
2026-04-21 23:13 35.46148 25.89937 37005 ft 500 kts 153°
2026-04-21 23:14 35.40187 25.94345 37005 ft 500 kts 153°
2026-04-21 23:14 35.34223 25.98748 37009 ft 500 kts 153°
2026-04-21 23:15 35.28261 26.03142 37008 ft 500 kts 153°
2026-04-21 23:15 35.22303 26.07526 37001 ft 499 kts 153°
2026-04-21 23:16 35.16348 26.11900 37016 ft 499 kts 153°
2026-04-21 23:16 35.10389 26.16271 37018 ft 499 kts 153°
2026-04-21 23:17 35.04607 26.21014 37006 ft 505 kts 144°
2026-04-21 23:17 34.99293 26.26607 37014 ft 505 kts 142°
2026-04-21 23:18 34.93993 26.32208 37009 ft 504 kts 143°
2026-04-21 23:18 34.88671 26.37766 37023 ft 504 kts 143°
2026-04-21 23:19 34.83370 26.43261 37020 ft 504 kts 143°
2026-04-21 23:19 34.78029 26.48784 37016 ft 504 kts 143°
2026-04-21 23:20 34.72683 26.54305 37021 ft 504 kts 143°
2026-04-21 23:20 34.67333 26.59823 37022 ft 504 kts 143°
2026-04-21 23:21 34.61980 26.65335 37023 ft 504 kts 143°
2026-04-21 23:21 34.56626 26.70837 37030 ft 504 kts 143°
2026-04-21 23:22 34.51267 26.76336 37034 ft 505 kts 143°
2026-04-21 23:22 34.45904 26.81828 37032 ft 505 kts 143°
2026-04-21 23:23 34.40538 26.87314 37034 ft 505 kts 144°
2026-04-21 23:23 34.35165 26.92798 37008 ft 505 kts 144°
2026-04-21 23:24 34.29798 26.98267 37030 ft 504 kts 144°
2026-04-21 23:24 34.24429 27.03729 37035 ft 504 kts 144°
2026-04-21 23:25 34.19056 27.09184 37039 ft 504 kts 144°
2026-04-21 23:25 34.13679 27.14634 37036 ft 505 kts 144°
2026-04-21 23:26 34.08303 27.20075 37031 ft 504 kts 144°
2026-04-21 23:26 34.02924 27.25512 37019 ft 504 kts 144°
2026-04-21 23:27 33.97522 27.30899 37039 ft 502 kts 148°
2026-04-21 23:27 33.91636 27.35293 37046 ft 494 kts 159°
2026-04-21 23:28 33.85405 27.38581 37042 ft 492 kts 162°
2026-04-21 23:28 33.79074 27.41868 37045 ft 493 kts 161°
2026-04-21 23:29 33.72833 27.45147 37032 ft 493 kts 161°
2026-04-21 23:29 33.66552 27.48464 37044 ft 493 kts 161°
2026-04-21 23:30 33.60267 27.51784 37048 ft 494 kts 161°
2026-04-21 23:30 33.53976 27.55099 37047 ft 494 kts 161°
2026-04-21 23:31 33.47680 27.58411 37031 ft 494 kts 161°
2026-04-21 23:31 33.41385 27.61716 37047 ft 494 kts 161°
2026-04-21 23:32 33.35090 27.65016 37048 ft 494 kts 162°
2026-04-21 23:32 33.28791 27.68313 37052 ft 494 kts 162°
2026-04-21 23:33 33.22491 27.71605 37038 ft 494 kts 162°
2026-04-21 23:33 33.16195 27.74890 37044 ft 494 kts 162°
2026-04-21 23:34 33.09942 27.78148 37056 ft 493 kts 162°
2026-04-21 23:34 33.03649 27.81421 37048 ft 493 kts 162°
2026-04-21 23:35 32.97357 27.84688 37051 ft 493 kts 162°
2026-04-21 23:35 32.91066 27.87950 37057 ft 493 kts 162°
2026-04-21 23:36 32.84777 27.91206 37055 ft 493 kts 162°
2026-04-21 23:36 32.78486 27.94458 37037 ft 493 kts 162°
2026-04-21 23:37 32.72194 27.97705 37057 ft 493 kts 162°
2026-04-21 23:37 32.65899 28.00949 37059 ft 493 kts 162°
2026-04-21 23:38 32.59603 28.04188 37054 ft 493 kts 162°
2026-04-21 23:38 32.53306 28.07423 37050 ft 493 kts 162°
2026-04-21 23:39 32.47008 28.10653 37056 ft 493 kts 162°
2026-04-21 23:39 32.40706 28.13881 37038 ft 493 kts 162°
2026-04-21 23:40 32.34448 28.17082 37050 ft 493 kts 162°
2026-04-21 23:40 32.28150 28.20297 37056 ft 493 kts 162°
2026-04-21 23:41 32.21847 28.23511 37054 ft 493 kts 162°
2026-04-21 23:41 32.15542 28.26721 37054 ft 493 kts 162°
2026-04-21 23:42 32.09236 28.29926 37052 ft 493 kts 162°
2026-04-21 23:42 32.02936 28.33124 37058 ft 493 kts 162°
2026-04-21 23:43 31.96631 28.36319 37057 ft 493 kts 162°
2026-04-21 23:43 31.90322 28.39513 37056 ft 493 kts 162°
2026-04-21 23:44 31.84014 28.42698 37038 ft 493 kts 163°
2026-04-21 23:44 31.77703 28.45857 37054 ft 493 kts 163°
2026-04-21 23:45 31.68233 28.50587 37058 ft 493 kts 163°
2026-04-21 23:46 31.61914 28.53741 37059 ft 494 kts 163°
2026-04-21 23:46 31.55591 28.56891 37047 ft 493 kts 163°
2026-04-21 23:47 31.49271 28.60034 37058 ft 494 kts 163°
2026-04-21 23:47 31.42988 28.63156 37058 ft 494 kts 163°
2026-04-21 23:48 31.36660 28.66296 37060 ft 494 kts 163°
2026-04-21 23:48 31.30327 28.69435 37034 ft 494 kts 163°
2026-04-21 23:49 31.23993 28.72569 37060 ft 494 kts 163°
2026-04-21 23:49 31.18722 28.75173 37061 ft 495 kts 163°
2026-04-21 23:50 31.12375 28.78305 37058 ft 495 kts 163°
2026-04-21 23:50 31.06025 28.81434 37056 ft 496 kts 163°
2026-04-21 23:51 30.99669 28.84562 37045 ft 496 kts 164°
2026-04-21 23:51 30.93316 28.87684 37056 ft 496 kts 164°
2026-04-21 23:52 30.86957 28.90803 37061 ft 496 kts 164°
2026-04-21 23:52 30.80634 28.93901 37061 ft 496 kts 164°
2026-04-21 23:53 30.74267 28.97016 37022 ft 497 kts 164°
2026-04-21 23:53 30.67904 29.00125 37056 ft 496 kts 164°
2026-04-21 23:54 30.61532 29.03235 37054 ft 497 kts 164°
2026-04-21 23:54 30.55157 29.06343 37058 ft 497 kts 163°
2026-04-21 23:55 30.49099 29.10413 37058 ft 511 kts 149°
2026-04-21 23:55 30.43854 29.16088 37057 ft 521 kts 137°
2026-04-21 23:56 30.38954 29.22259 37057 ft 519 kts 140°
2026-04-21 23:56 30.33888 29.28218 37059 ft 519 kts 140°
2026-04-21 23:57 30.28828 29.34191 37065 ft 520 kts 140°
2026-04-21 23:57 30.23789 29.40211 37060 ft 521 kts 140°
2026-04-21 23:58 30.18752 29.46240 37056 ft 521 kts 140°
2026-04-21 23:58 30.13707 29.52260 37059 ft 521 kts 140°
2026-04-21 23:59 30.08660 29.58268 37033 ft 521 kts 140°
2026-04-21 23:59 30.03610 29.64267 37056 ft 521 kts 140°
2026-04-22 00:00 29.98552 29.70267 37055 ft 522 kts 140°
2026-04-22 00:00 29.93489 29.76263 37074 ft 522 kts 140°
2026-04-22 00:01 29.88418 29.82260 37074 ft 522 kts 140°
2026-04-22 00:01 29.83376 29.88213 37072 ft 522 kts 140°
2026-04-22 00:02 29.78299 29.94200 37047 ft 523 kts 141°
2026-04-22 00:02 29.73216 30.00183 37068 ft 523 kts 141°
2026-04-22 00:03 29.68132 30.06160 37070 ft 523 kts 141°
2026-04-22 00:03 29.63047 30.12128 37047 ft 522 kts 141°
2026-04-22 00:04 29.57961 30.18088 37066 ft 522 kts 141°
2026-04-22 00:04 29.52872 30.24041 37063 ft 522 kts 141°
2026-04-22 00:05 29.47783 30.29987 37060 ft 522 kts 141°
2026-04-22 00:05 29.42690 30.35930 37062 ft 522 kts 141°
2026-04-22 00:06 29.37603 30.41877 37049 ft 522 kts 141°
2026-04-22 00:06 29.32565 30.47882 37060 ft 523 kts 141°
2026-04-22 00:07 29.27531 30.53905 37068 ft 524 kts 141°
2026-04-22 00:07 29.22475 30.59928 37067 ft 525 kts 141°
2026-04-22 00:08 29.17406 30.65946 37065 ft 525 kts 141°
2026-04-22 00:08 29.12365 30.71921 37064 ft 526 kts 141°
2026-04-22 00:09 29.07282 30.77938 37066 ft 526 kts 141°
2026-04-22 00:09 29.02200 30.83945 37057 ft 525 kts 141°
2026-04-22 00:10 28.97122 30.89937 37067 ft 525 kts 141°
2026-04-22 00:10 28.92039 30.95926 37058 ft 525 kts 141°
2026-04-22 00:11 28.86953 31.01911 37061 ft 525 kts 141°
2026-04-22 00:11 28.81860 31.07894 37062 ft 526 kts 141°
2026-04-22 00:12 28.76762 31.13876 37054 ft 526 kts 141°
2026-04-22 00:12 28.71659 31.19857 37047 ft 526 kts 141°
2026-04-22 00:13 28.66608 31.25906 37019 ft 528 kts 140°
2026-04-22 00:13 28.61700 31.32152 37048 ft 530 kts 139°
2026-04-22 00:14 28.56793 31.38420 37048 ft 531 kts 139°
2026-04-22 00:14 28.51845 31.44669 37050 ft 532 kts 140°
2026-04-22 00:15 28.46871 31.50908 37042 ft 533 kts 140°
2026-04-22 00:15 28.41922 31.57104 37043 ft 533 kts 140°
2026-04-22 00:16 28.36934 31.63345 37044 ft 533 kts 140°
2026-04-22 00:16 28.31946 31.69578 37043 ft 533 kts 140°
2026-04-22 00:17 28.26961 31.75800 37044 ft 532 kts 140°
2026-04-22 00:17 28.21974 31.82012 37039 ft 533 kts 140°
2026-04-22 00:18 28.16984 31.88219 37045 ft 533 kts 140°
2026-04-22 00:18 28.11985 31.94430 37052 ft 534 kts 140°
2026-04-22 00:19 28.06980 32.00639 37046 ft 534 kts 140°
2026-04-22 00:19 28.02311 32.07259 37044 ft 544 kts 130°
2026-04-22 00:20 27.98559 32.14768 37053 ft 550 kts 124°
2026-04-22 00:20 27.94972 32.22408 37049 ft 550 kts 124°
2026-04-22 00:21 27.91364 32.29973 37040 ft 550 kts 124°
2026-04-22 00:21 27.87698 32.37561 37032 ft 549 kts 125°
2026-04-22 00:22 27.84022 32.45132 37041 ft 550 kts 125°
2026-04-22 00:22 27.80339 32.52712 37031 ft 551 kts 125°
2026-04-22 00:23 27.76650 32.60300 37030 ft 551 kts 125°
2026-04-22 00:23 27.72954 32.67890 37014 ft 552 kts 125°
2026-04-22 00:24 27.69251 32.75479 37017 ft 552 kts 125°
2026-04-22 00:24 27.65539 32.83072 37013 ft 553 kts 125°
2026-04-22 00:25 27.61820 32.90668 36985 ft 553 kts 125°
2026-04-22 00:25 27.58100 32.98252 37005 ft 553 kts 125°
2026-04-22 00:26 27.54377 33.05829 36968 ft 553 kts 126°
2026-04-22 00:26 27.50650 33.13399 36999 ft 552 kts 126°
2026-04-22 00:27 27.46919 33.20964 36958 ft 552 kts 126°
2026-04-22 00:27 27.43209 33.28473 36979 ft 552 kts 126°
2026-04-22 00:28 27.39471 33.36029 36981 ft 553 kts 126°
2026-04-22 00:28 27.35726 33.43584 36974 ft 553 kts 126°
2026-04-22 00:29 27.31976 33.51139 36962 ft 553 kts 126°
2026-04-22 00:29 27.28216 33.58703 36967 ft 555 kts 126°
2026-04-22 00:30 27.24441 33.66285 36969 ft 556 kts 126°
2026-04-22 00:30 27.20657 33.73878 36958 ft 558 kts 126°
2026-04-22 00:31 27.16998 33.81585 36937 ft 564 kts 120°
2026-04-22 00:31 27.14077 33.89793 36949 ft 567 kts 116°
2026-04-22 00:32 27.11225 33.98038 36920 ft 566 kts 117°
2026-04-22 00:32 27.08331 34.06192 36936 ft 566 kts 117°
2026-04-22 00:33 27.05390 34.14382 36930 ft 566 kts 118°
2026-04-22 00:33 27.02452 34.22571 36902 ft 566 kts 117°
2026-04-22 00:34 26.99515 34.30764 36917 ft 566 kts 117°
2026-04-22 00:34 26.96578 34.38954 36913 ft 566 kts 117°
2026-04-22 00:35 26.93638 34.47138 36909 ft 566 kts 118°
2026-04-22 00:35 26.90692 34.55320 36890 ft 566 kts 118°
2026-04-22 00:36 26.87742 34.63496 36895 ft 566 kts 118°
2026-04-22 00:36 26.84786 34.71668 36893 ft 566 kts 118°
2026-04-22 00:37 26.81824 34.79842 36884 ft 566 kts 118°
2026-04-22 00:37 26.78859 34.88012 36882 ft 567 kts 118°
2026-04-22 00:38 26.75885 34.96180 36877 ft 567 kts 118°
2026-04-22 00:38 26.72918 35.04283 36866 ft 567 kts 118°
2026-04-22 00:39 26.69925 35.12432 36869 ft 567 kts 118°
2026-04-22 00:39 26.66927 35.20586 36868 ft 567 kts 118°
2026-04-22 00:40 26.63926 35.28737 36868 ft 567 kts 118°
2026-04-22 00:40 26.60919 35.36889 36863 ft 567 kts 118°
2026-04-22 00:41 26.57907 35.45039 36865 ft 567 kts 118°
2026-04-22 00:41 26.54869 35.53173 36848 ft 567 kts 119°
2026-04-22 00:42 26.51767 35.61261 36852 ft 566 kts 120°
2026-04-22 00:42 26.48653 35.69342 36853 ft 567 kts 119°
2026-04-22 00:43 26.45546 35.77424 36815 ft 567 kts 119°
2026-04-22 00:43 26.42967 35.84139 36850 ft 566 kts 119°
2026-04-22 00:44 26.39860 35.92212 36852 ft 566 kts 119°
2026-04-22 00:44 26.36239 36.01595 36849 ft 567 kts 119°
2026-04-22 00:45 26.33621 36.08365 36846 ft 568 kts 120°
2026-04-22 00:45 26.30491 36.16447 36849 ft 568 kts 120°
2026-04-22 00:46 26.27355 36.24525 36856 ft 568 kts 120°
2026-04-22 00:46 26.24235 36.32549 36850 ft 568 kts 120°
2026-04-22 00:47 26.21091 36.40623 36861 ft 568 kts 120°
2026-04-22 00:47 26.17927 36.48691 36859 ft 567 kts 121°
2026-04-22 00:48 26.14270 36.56400 36849 ft 562 kts 126°
2026-04-22 00:48 26.10457 36.63997 36843 ft 562 kts 126°
2026-04-22 00:49 26.06666 36.71612 36844 ft 563 kts 126°
2026-04-22 00:49 26.02895 36.79252 36832 ft 564 kts 126°
2026-04-22 00:50 25.99127 36.86892 36852 ft 563 kts 126°
2026-04-22 00:50 25.95351 36.94524 36853 ft 564 kts 126°
2026-04-22 00:51 25.91566 37.02153 36848 ft 564 kts 126°
2026-04-22 00:51 25.87778 37.09778 36855 ft 564 kts 126°
2026-04-22 00:52 25.84012 37.17349 36853 ft 564 kts 126°
2026-04-22 00:52 25.80218 37.24963 36846 ft 564 kts 126°
2026-04-22 00:53 25.76428 37.32568 36860 ft 563 kts 126°
2026-04-22 00:53 25.72641 37.40168 36847 ft 563 kts 126°
2026-04-22 00:54 25.68855 37.47755 36867 ft 562 kts 126°
2026-04-22 00:54 25.65065 37.55340 36873 ft 562 kts 125°
2026-04-22 00:55 25.61264 37.62913 36867 ft 563 kts 126°
2026-04-22 00:55 25.55566 37.74287 36866 ft 563 kts 125°
2026-04-22 00:56 25.51760 37.81858 36868 ft 562 kts 126°
2026-04-22 00:56 25.47952 37.89413 36878 ft 562 kts 126°
2026-04-22 00:57 25.44143 37.96960 36868 ft 562 kts 126°
2026-04-22 00:57 25.40331 38.04501 36870 ft 562 kts 126°
2026-04-22 00:58 25.36513 38.12048 36861 ft 562 kts 126°
2026-04-22 00:58 25.32719 38.19531 36850 ft 561 kts 126°
2026-04-22 00:59 25.28898 38.27054 36856 ft 561 kts 126°
2026-04-22 00:59 25.25078 38.34566 36875 ft 561 kts 126°
2026-04-22 01:00 25.21255 38.42073 36882 ft 561 kts 126°
2026-04-22 01:00 25.17423 38.49582 36885 ft 561 kts 126°
2026-04-22 01:01 25.13587 38.57089 36893 ft 562 kts 126°
2026-04-22 01:01 25.09747 38.64594 36849 ft 562 kts 126°
2026-04-22 01:02 25.05908 38.72093 36881 ft 561 kts 126°
2026-04-22 01:02 25.02066 38.79581 36880 ft 561 kts 126°
2026-04-22 01:03 24.98221 38.87068 36889 ft 561 kts 126°
2026-04-22 01:03 24.94374 38.94536 36900 ft 560 kts 126°
2026-04-22 01:04 24.90508 39.01977 36906 ft 559 kts 126°
2026-04-22 01:04 24.86665 39.09363 36914 ft 560 kts 126°
2026-04-22 01:05 24.82793 39.16808 36901 ft 560 kts 126°
2026-04-22 01:05 24.78915 39.24249 36918 ft 561 kts 126°
2026-04-22 01:06 24.75030 39.31694 36921 ft 561 kts 126°
2026-04-22 01:06 24.71137 39.39147 36935 ft 562 kts 126°
2026-04-22 01:07 24.67240 39.46599 36933 ft 562 kts 126°
2026-04-22 01:07 24.63338 39.54047 36919 ft 562 kts 126°
2026-04-22 01:08 24.59433 39.61490 36944 ft 562 kts 126°
2026-04-22 01:08 24.55945 39.69216 36920 ft 571 kts 114°
2026-04-22 01:09 24.53876 39.77662 36939 ft 576 kts 100°
2026-04-22 01:09 24.53040 39.86404 36944 ft 577 kts 96°
2026-04-22 01:10 24.52305 39.95239 37154 ft 584 kts 96°
2026-04-22 01:10 24.51910 39.99679 37396 ft 584 kts 97°
2026-04-22 01:10 24.51495 40.04112 37663 ft 583 kts 97°
2026-04-22 01:11 24.51068 40.08538 37933 ft 583 kts 97°
2026-04-22 01:11 24.50633 40.12965 38159 ft 584 kts 97°
2026-04-22 01:11 24.50195 40.17399 38355 ft 585 kts 97°
2026-04-22 01:11 24.49757 40.21836 38558 ft 585 kts 97°
2026-04-22 01:12 24.49319 40.26280 38743 ft 585 kts 97°
2026-04-22 01:12 24.48881 40.30722 38871 ft 586 kts 97°
2026-04-22 01:12 24.48000 40.39651 38940 ft 588 kts 97°
2026-04-22 01:13 24.47119 40.48534 38921 ft 582 kts 97°
2026-04-22 01:13 24.46241 40.57332 38936 ft 579 kts 97°
2026-04-22 01:14 24.45365 40.66039 38943 ft 578 kts 97°
2026-04-22 01:14 24.44478 40.74805 38957 ft 578 kts 97°
2026-04-22 01:15 24.43585 40.83582 38950 ft 580 kts 97°
2026-04-22 01:15 24.42685 40.92384 38943 ft 581 kts 97°
2026-04-22 01:16 24.41778 41.01203 38948 ft 582 kts 97°
2026-04-22 01:16 24.40863 41.10045 38948 ft 584 kts 97°
2026-04-22 01:17 24.39931 41.18899 38946 ft 585 kts 98°
2026-04-22 01:17 24.38992 41.27759 38951 ft 585 kts 98°
2026-04-22 01:18 24.38049 41.36624 38949 ft 585 kts 98°
2026-04-22 01:18 24.37108 41.45422 38954 ft 585 kts 98°
2026-04-22 01:19 24.36157 41.54277 38949 ft 584 kts 98°
2026-04-22 01:19 24.35202 41.63117 38947 ft 583 kts 98°
2026-04-22 01:20 24.34243 41.71940 38955 ft 582 kts 98°
2026-04-22 01:20 24.33253 41.80748 38947 ft 581 kts 100°
2026-04-22 01:21 24.31426 41.89336 38961 ft 577 kts 109°
2026-04-22 01:21 24.29118 41.97767 38952 ft 578 kts 110°
2026-04-22 01:22 24.26826 42.06207 38942 ft 578 kts 109°
2026-04-22 01:22 24.24583 42.14662 38945 ft 578 kts 109°
2026-04-22 01:23 24.22350 42.23127 38934 ft 579 kts 109°
2026-04-22 01:23 24.20108 42.31591 38941 ft 579 kts 109°
2026-04-22 01:24 24.17855 42.40055 38936 ft 579 kts 109°
2026-04-22 01:24 24.15593 42.48525 38930 ft 579 kts 109°
2026-04-22 01:25 24.13331 42.56984 38939 ft 579 kts 109°
2026-04-22 01:25 24.11064 42.65437 38929 ft 579 kts 109°
2026-04-22 01:26 24.08795 42.73880 38943 ft 578 kts 109°
2026-04-22 01:26 24.06523 42.82314 38939 ft 578 kts 109°
2026-04-22 01:27 24.04247 42.90744 38940 ft 578 kts 109°
2026-04-22 01:27 24.01985 42.99111 38938 ft 577 kts 109°
2026-04-22 01:28 23.99706 43.07527 38940 ft 577 kts 109°
2026-04-22 01:28 23.97426 43.15932 38941 ft 576 kts 109°
2026-04-22 01:29 23.95143 43.24326 38934 ft 576 kts 109°
2026-04-22 01:29 23.92856 43.32714 38943 ft 576 kts 109°
2026-04-22 01:30 23.90565 43.41094 38942 ft 576 kts 109°
2026-04-22 01:30 23.88269 43.49476 38937 ft 576 kts 109°
2026-04-22 01:31 23.85969 43.57853 38931 ft 575 kts 109°
2026-04-22 01:31 23.83666 43.66221 38922 ft 575 kts 109°
2026-04-22 01:32 23.81360 43.74584 38926 ft 575 kts 109°
2026-04-22 01:32 23.79052 43.82938 38923 ft 574 kts 109°
2026-04-22 01:33 23.77173 43.91414 38916 ft 576 kts 99°
2026-04-22 01:33 23.76455 44.00048 38907 ft 575 kts 94°
2026-04-22 01:34 23.75898 44.08763 38902 ft 575 kts 94°
2026-04-22 01:34 23.75282 44.17468 38929 ft 576 kts 94°
2026-04-22 01:35 23.74619 44.26179 38911 ft 576 kts 94°
2026-04-22 01:35 23.73947 44.34888 38914 ft 576 kts 94°
2026-04-22 01:36 23.73275 44.43605 38909 ft 576 kts 94°
2026-04-22 01:36 23.72602 44.52318 38917 ft 576 kts 94°
2026-04-22 01:37 23.72039 44.59558 38917 ft 576 kts 94°
2026-04-22 01:37 23.71357 44.68262 38902 ft 575 kts 94°
2026-04-22 01:38 23.70671 44.76955 38910 ft 575 kts 94°
2026-04-22 01:38 23.69980 44.85644 38915 ft 574 kts 94°
2026-04-22 01:39 23.69284 44.94325 38910 ft 574 kts 94°
2026-04-22 01:39 23.68580 45.03004 38907 ft 575 kts 94°
2026-04-22 01:40 23.67872 45.11685 38903 ft 574 kts 94°
2026-04-22 01:40 23.67161 45.20360 38911 ft 574 kts 94°
2026-04-22 01:41 23.66446 45.29027 38911 ft 574 kts 94°
2026-04-22 01:41 23.65729 45.37695 38897 ft 574 kts 94°
2026-04-22 01:42 23.65012 45.46306 38900 ft 574 kts 95°
2026-04-22 01:42 23.64286 45.54975 38869 ft 574 kts 95°
2026-04-22 01:43 23.63555 45.63637 38882 ft 573 kts 95°
2026-04-22 01:43 23.62820 45.72291 38880 ft 573 kts 95°
2026-04-22 01:44 23.62081 45.80947 38889 ft 573 kts 95°
2026-04-22 01:44 23.61338 45.89596 38880 ft 573 kts 95°
2026-04-22 01:45 23.60591 45.98248 38885 ft 573 kts 94°
2026-04-22 01:45 23.59838 46.06902 38881 ft 574 kts 94°
2026-04-22 01:46 23.59080 46.15560 38888 ft 574 kts 95°
2026-04-22 01:46 23.58317 46.24226 38895 ft 575 kts 94°
2026-04-22 01:47 23.57546 46.32897 38906 ft 575 kts 95°
2026-04-22 01:47 23.56771 46.41571 38914 ft 574 kts 94°
2026-04-22 01:48 23.55995 46.50235 38925 ft 574 kts 94°
2026-04-22 01:48 23.55215 46.58830 38916 ft 573 kts 94°
2026-04-22 01:49 23.54417 46.67459 38910 ft 571 kts 94°
2026-04-22 01:49 23.53617 46.76063 38907 ft 570 kts 94°
2026-04-22 01:50 23.52815 46.84658 38903 ft 570 kts 95°
2026-04-22 01:50 23.52010 46.93239 38907 ft 569 kts 95°
2026-04-22 01:51 23.51200 47.01821 38910 ft 570 kts 95°
2026-04-22 01:51 23.50385 47.10415 38899 ft 570 kts 95°
2026-04-22 01:52 23.49564 47.19010 38904 ft 571 kts 95°
2026-04-22 01:52 23.48738 47.27612 38891 ft 571 kts 95°
2026-04-22 01:53 23.47907 47.36211 38887 ft 571 kts 95°
2026-04-22 01:53 23.47072 47.44812 38890 ft 571 kts 95°
2026-04-22 01:54 23.46233 47.53412 38880 ft 571 kts 95°
2026-04-22 01:54 23.45395 47.62005 38896 ft 570 kts 94°
2026-04-22 01:55 23.44557 47.70593 38867 ft 570 kts 95°
2026-04-22 01:55 23.43720 47.79110 38874 ft 569 kts 95°
2026-04-22 01:56 23.42873 47.87674 38872 ft 569 kts 95°
2026-04-22 01:56 23.42022 47.96234 38866 ft 568 kts 95°
2026-04-22 01:57 23.41166 48.04786 38874 ft 568 kts 95°
2026-04-22 01:57 23.40307 48.13335 38852 ft 568 kts 95°
2026-04-22 01:58 23.39445 48.21872 38851 ft 567 kts 95°
2026-04-22 01:58 23.38317 48.30369 38835 ft 568 kts 104°
2026-04-22 01:59 23.35621 48.38410 38845 ft 565 kts 118°
2026-04-22 01:59 23.31595 48.45689 38851 ft 561 kts 127°
2026-04-22 02:00 23.27307 48.52782 38842 ft 562 kts 127°
2026-04-22 02:00 23.23045 48.59918 38827 ft 563 kts 126°
2026-04-22 02:01 23.18820 48.67092 38840 ft 564 kts 126°
2026-04-22 02:01 23.14598 48.74283 38834 ft 565 kts 126°
2026-04-22 02:02 23.10396 48.81423 38830 ft 565 kts 126°
2026-04-22 02:02 23.06157 48.88607 38814 ft 564 kts 126°
2026-04-22 02:03 23.01918 48.95776 38823 ft 564 kts 126°
2026-04-22 02:03 22.97680 49.02933 38821 ft 563 kts 126°
2026-04-22 02:04 22.91323 49.13653 38813 ft 563 kts 126°
2026-04-22 02:05 22.87085 49.20787 38815 ft 562 kts 126°
2026-04-22 02:05 22.82848 49.27912 38815 ft 562 kts 126°
2026-04-22 02:06 22.78608 49.35031 38817 ft 562 kts 126°
2026-04-22 02:06 22.74362 49.42148 38805 ft 562 kts 126°
2026-04-22 02:07 22.70115 49.49259 38809 ft 562 kts 126°
2026-04-22 02:07 22.65866 49.56365 38807 ft 562 kts 125°
2026-04-22 02:08 22.61609 49.63473 38804 ft 563 kts 125°
2026-04-22 02:08 22.57347 49.70579 38794 ft 563 kts 126°
2026-04-22 02:09 22.53085 49.77677 38802 ft 562 kts 125°
2026-04-22 02:09 22.48819 49.84771 38806 ft 563 kts 125°
2026-04-22 02:10 22.44578 49.91814 38794 ft 563 kts 125°
2026-04-22 02:10 22.40308 49.98897 38803 ft 562 kts 125°
2026-04-22 02:11 22.36034 50.05977 38802 ft 563 kts 125°
2026-04-22 02:11 22.31754 50.13056 38799 ft 563 kts 126°
2026-04-22 02:12 22.27445 50.20176 38787 ft 562 kts 126°
2026-04-22 02:12 22.23194 50.27188 38794 ft 562 kts 126°
2026-04-22 02:13 22.18915 50.34238 38793 ft 561 kts 126°
2026-04-22 02:13 22.14639 50.41275 38796 ft 561 kts 126°
2026-04-22 02:14 22.10361 50.48307 38786 ft 561 kts 126°
2026-04-22 02:14 22.06084 50.55329 38791 ft 560 kts 126°
2026-04-22 02:15 22.02064 50.62509 38786 ft 561 kts 114°
2026-04-22 02:15 21.99783 50.70522 38791 ft 559 kts 97°
2026-04-22 02:16 21.99234 50.78814 38794 ft 554 kts 88°
2026-04-22 02:16 21.98990 50.87124 38791 ft 556 kts 89°
2026-04-22 02:17 21.98688 50.95449 38790 ft 557 kts 89°
2026-04-22 02:17 21.98327 51.03729 38792 ft 557 kts 90°
2026-04-22 02:18 21.97941 51.12070 38793 ft 557 kts 90°
2026-04-22 02:18 21.97553 51.20412 38791 ft 557 kts 90°
2026-04-22 02:19 21.97167 51.28751 38786 ft 557 kts 90°
2026-04-22 02:19 21.96778 51.37078 38789 ft 556 kts 90°
2026-04-22 02:20 21.96386 51.45396 38787 ft 556 kts 90°
2026-04-22 02:20 21.95990 51.53701 38786 ft 555 kts 90°
2026-04-22 02:21 21.95591 51.61996 38794 ft 554 kts 90°
2026-04-22 02:21 21.95187 51.70277 38777 ft 553 kts 90°
2026-04-22 02:22 21.94780 51.78542 38777 ft 552 kts 90°
2026-04-22 02:22 21.94370 51.86795 38784 ft 551 kts 90°
2026-04-22 02:23 21.93956 51.95040 38776 ft 551 kts 90°
2026-04-22 02:23 21.93539 52.03280 38780 ft 551 kts 90°
2026-04-22 02:24 21.93119 52.11461 38782 ft 551 kts 90°
2026-04-22 02:24 21.92694 52.19698 38776 ft 551 kts 90°
2026-04-22 02:25 21.92264 52.27933 38774 ft 551 kts 90°
2026-04-22 02:25 21.91829 52.36169 38778 ft 551 kts 90°
2026-04-22 02:26 21.91392 52.44402 38767 ft 551 kts 90°
2026-04-22 02:26 21.90949 52.52636 38776 ft 551 kts 90°
2026-04-22 02:27 21.90503 52.60864 38767 ft 550 kts 90°
2026-04-22 02:27 21.90052 52.69089 38766 ft 550 kts 90°
2026-04-22 02:28 21.89598 52.77309 38773 ft 550 kts 90°
2026-04-22 02:28 21.89141 52.85520 38769 ft 549 kts 90°
2026-04-22 02:29 21.88680 52.93730 38770 ft 549 kts 90°
2026-04-22 02:29 21.88293 53.00550 38765 ft 549 kts 90°
2026-04-22 02:30 21.87824 53.08749 38759 ft 549 kts 90°
2026-04-22 02:30 21.87352 53.16945 38774 ft 548 kts 90°
2026-04-22 02:31 21.86798 53.26464 38782 ft 548 kts 90°
2026-04-22 02:31 21.86396 53.33325 38772 ft 548 kts 90°
2026-04-22 02:32 21.85912 53.41513 38771 ft 548 kts 90°
2026-04-22 02:32 21.85424 53.49696 38777 ft 548 kts 90°
2026-04-22 02:33 21.84935 53.57825 38775 ft 548 kts 90°
2026-04-22 02:33 21.84439 53.66009 38776 ft 548 kts 90°
2026-04-22 02:34 21.83939 53.74195 38771 ft 548 kts 90°
2026-04-22 02:34 21.83434 53.82374 38782 ft 547 kts 90°
2026-04-22 02:35 21.82925 53.90551 38786 ft 548 kts 90°
2026-04-22 02:35 21.82414 53.98734 38772 ft 548 kts 90°
2026-04-22 02:36 21.81898 54.06918 38792 ft 548 kts 90°
2026-04-22 02:36 21.81379 54.15096 38790 ft 548 kts 90°
2026-04-22 02:37 21.80852 54.23284 38779 ft 548 kts 90°
2026-04-22 02:37 21.80322 54.31469 38790 ft 548 kts 90°
2026-04-22 02:38 21.79794 54.39643 38793 ft 547 kts 90°
2026-04-22 02:38 21.79257 54.47814 38792 ft 547 kts 90°
2026-04-22 02:39 21.78721 54.55928 38794 ft 547 kts 90°
2026-04-22 02:39 21.78176 54.64098 38797 ft 548 kts 90°
2026-04-22 02:40 21.77629 54.72269 38800 ft 547 kts 90°
2026-04-22 02:40 21.77077 54.80435 38802 ft 547 kts 90°
2026-04-22 02:41 21.76521 54.88598 38790 ft 547 kts 90°
2026-04-22 02:41 21.75961 54.96753 38807 ft 546 kts 90°
2026-04-22 02:42 21.75399 55.04897 38814 ft 546 kts 90°
2026-04-22 02:42 21.74833 55.13034 38801 ft 545 kts 90°
2026-04-22 02:43 21.74265 55.21168 38804 ft 545 kts 90°
2026-04-22 02:43 21.73690 55.29288 38818 ft 544 kts 90°
2026-04-22 02:44 21.73115 55.37387 38819 ft 543 kts 90°
2026-04-22 02:44 21.72541 55.45431 38813 ft 543 kts 90°
2026-04-22 02:45 21.71959 55.53520 38817 ft 542 kts 90°
2026-04-22 02:45 21.71406 55.61600 38814 ft 541 kts 89°
2026-04-22 02:46 21.70954 55.69678 38825 ft 541 kts 89°
2026-04-22 02:46 21.70495 55.77753 38821 ft 541 kts 89°
2026-04-22 02:47 21.70015 55.85825 38834 ft 541 kts 89°
2026-04-22 02:47 21.69538 55.93891 38835 ft 541 kts 89°
2026-04-22 02:48 21.69061 56.01952 38837 ft 540 kts 89°
2026-04-22 02:48 21.68580 56.10010 38846 ft 540 kts 89°
2026-04-22 02:49 21.68095 56.18060 38841 ft 540 kts 89°
2026-04-22 02:49 21.67605 56.26108 38835 ft 539 kts 89°
2026-04-22 02:50 21.67112 56.34152 38857 ft 539 kts 90°
2026-04-22 02:50 21.66619 56.42137 38851 ft 539 kts 90°
2026-04-22 02:51 21.66119 56.50171 38857 ft 538 kts 90°
2026-04-22 02:51 21.65615 56.58197 38865 ft 538 kts 90°
2026-04-22 02:52 21.65108 56.66220 38864 ft 538 kts 90°
2026-04-22 02:52 21.64598 56.74233 38863 ft 537 kts 90°
2026-04-22 02:53 21.64083 56.82242 38870 ft 537 kts 90°
2026-04-22 02:53 21.63566 56.90244 38879 ft 536 kts 90°
2026-04-22 02:54 21.63045 56.98241 38880 ft 536 kts 90°
2026-04-22 02:54 21.62521 57.06230 38877 ft 536 kts 90°
2026-04-22 02:55 21.61994 57.14209 38897 ft 535 kts 90°
2026-04-22 02:55 21.61466 57.22125 38882 ft 535 kts 90°
2026-04-22 02:56 21.60931 57.30087 38895 ft 534 kts 90°
2026-04-22 02:56 21.60394 57.38041 38891 ft 533 kts 90°
2026-04-22 02:57 21.59854 57.45982 38899 ft 533 kts 90°
2026-04-22 02:57 21.59311 57.53920 38895 ft 532 kts 90°
2026-04-22 02:58 21.58765 57.61844 38894 ft 532 kts 90°
2026-04-22 02:58 21.57734 57.69726 38908 ft 535 kts 101°
2026-04-22 02:59 21.55612 57.77400 38898 ft 536 kts 105°
2026-04-22 02:59 21.53383 57.85037 38892 ft 536 kts 105°
2026-04-22 03:00 21.51196 57.92683 38911 ft 536 kts 104°
2026-04-22 03:00 21.49039 58.00331 38905 ft 535 kts 105°
2026-04-22 03:01 21.46885 58.07973 38901 ft 534 kts 105°
2026-04-22 03:01 21.44740 58.15554 38896 ft 534 kts 105°
2026-04-22 03:02 21.42579 58.23173 38913 ft 533 kts 105°
2026-04-22 03:02 21.40415 58.30783 38900 ft 533 kts 105°
2026-04-22 03:03 21.38250 58.38381 38897 ft 532 kts 105°
2026-04-22 03:03 21.36087 58.45963 38905 ft 531 kts 105°
2026-04-22 03:04 21.33921 58.53539 38905 ft 531 kts 105°
2026-04-22 03:04 21.31756 58.61100 38892 ft 530 kts 105°
2026-04-22 03:05 21.29590 58.68649 38900 ft 529 kts 105°
2026-04-22 03:05 21.27425 58.76185 38895 ft 529 kts 105°
2026-04-22 03:06 21.25256 58.83715 38881 ft 528 kts 105°
2026-04-22 03:06 21.23088 58.91236 38893 ft 528 kts 105°
2026-04-22 03:07 21.20917 58.98760 38884 ft 528 kts 105°
2026-04-22 03:07 21.18743 59.06280 38893 ft 528 kts 105°
2026-04-22 03:08 21.16567 59.13794 38888 ft 528 kts 105°
2026-04-22 03:08 21.14388 59.21305 38886 ft 528 kts 105°
2026-04-22 03:09 21.12208 59.28803 38890 ft 527 kts 105°
2026-04-22 03:09 21.10025 59.36299 38890 ft 527 kts 105°
2026-04-22 03:10 21.07841 59.43787 38886 ft 526 kts 105°
2026-04-22 03:10 21.05656 59.51266 38888 ft 526 kts 105°
2026-04-22 03:11 21.03471 59.58731 38885 ft 525 kts 105°
2026-04-22 03:11 21.01006 59.66006 38861 ft 524 kts 119°
2026-04-22 03:11 20.98919 59.69197 38894 ft 523 kts 132°
2026-04-22 03:12 20.96320 59.71899 38891 ft 521 kts 144°
2026-04-22 03:12 20.87077 59.77835 38899 ft 518 kts 152°
2026-04-22 03:13 20.80832 59.81734 38891 ft 521 kts 152°
2026-04-22 03:13 20.74590 59.85709 38894 ft 524 kts 151°
2026-04-22 03:14 20.68330 59.89720 38893 ft 525 kts 151°
2026-04-22 03:14 20.62061 59.93731 38891 ft 526 kts 151°
2026-04-22 03:15 20.55784 59.97738 38886 ft 525 kts 151°
2026-04-22 03:15 20.49513 60.01734 38886 ft 524 kts 151°
2026-04-22 03:16 20.43254 60.05719 38890 ft 523 kts 151°
2026-04-22 03:16 20.37008 60.09693 38889 ft 522 kts 151°
2026-04-22 03:17 20.30771 60.13657 38891 ft 521 kts 151°
2026-04-22 03:17 20.24546 60.17610 38902 ft 521 kts 151°
2026-04-22 03:18 20.18323 60.21558 38899 ft 521 kts 151°
2026-04-22 03:18 20.12101 60.25503 38895 ft 521 kts 151°
2026-04-22 03:19 20.05908 60.29500 38896 ft 521 kts 147°
2026-04-22 03:19 20.00261 60.34339 38896 ft 522 kts 138°
2026-04-22 03:20 19.94890 60.39540 38897 ft 523 kts 138°
2026-04-22 03:20 19.89532 60.44700 38900 ft 524 kts 139°
2026-04-22 03:21 19.84110 60.49868 38908 ft 524 kts 139°
2026-04-22 03:21 19.78674 60.55021 38894 ft 524 kts 139°
2026-04-22 03:22 19.73237 60.60170 38898 ft 523 kts 139°
2026-04-22 03:22 19.67805 60.65312 38905 ft 523 kts 139°
2026-04-22 03:23 19.62378 60.70447 38901 ft 523 kts 139°
2026-04-22 03:23 19.57866 60.74713 38903 ft 523 kts 139°
2026-04-22 03:24 19.52439 60.79839 38907 ft 522 kts 139°
2026-04-22 03:24 19.47017 60.84955 38899 ft 521 kts 139°
2026-04-22 03:25 19.41603 60.90059 38902 ft 521 kts 139°
2026-04-22 03:25 19.36194 60.95154 38904 ft 520 kts 139°
2026-04-22 03:26 19.30789 61.00239 38906 ft 520 kts 139°
2026-04-22 03:26 19.25384 61.05321 38915 ft 520 kts 139°
2026-04-22 03:27 19.19977 61.10399 38910 ft 520 kts 139°
2026-04-22 03:27 19.14602 61.15444 38912 ft 520 kts 139°
2026-04-22 03:28 19.09187 61.20520 38913 ft 520 kts 139°
2026-04-22 03:28 19.03771 61.25593 38913 ft 520 kts 139°
2026-04-22 03:29 18.98348 61.30668 38907 ft 521 kts 139°
2026-04-22 03:29 18.92921 61.35742 38927 ft 521 kts 139°
2026-04-22 03:30 18.87491 61.40815 38915 ft 521 kts 139°
2026-04-22 03:30 18.82066 61.45878 38915 ft 520 kts 139°
2026-04-22 03:31 18.76643 61.50935 38903 ft 520 kts 139°
2026-04-22 03:31 18.71225 61.55982 38912 ft 519 kts 139°
2026-04-22 03:32 18.65810 61.61023 38916 ft 519 kts 139°
2026-04-22 03:32 18.60393 61.66061 38916 ft 519 kts 139°
2026-04-22 03:33 18.54971 61.71099 38918 ft 520 kts 139°
2026-04-22 03:33 18.49545 61.76136 38906 ft 520 kts 139°
2026-04-22 03:34 18.44115 61.81172 38924 ft 520 kts 139°
2026-04-22 03:34 18.38675 61.86214 38920 ft 521 kts 139°
2026-04-22 03:35 18.33231 61.91255 38918 ft 521 kts 139°
2026-04-22 03:35 18.27784 61.96294 38923 ft 521 kts 139°
2026-04-22 03:36 18.22336 62.01329 38908 ft 521 kts 139°
2026-04-22 03:36 18.16928 62.06324 38919 ft 521 kts 139°
2026-04-22 03:37 18.11486 62.11345 38926 ft 520 kts 139°
2026-04-22 03:37 18.06046 62.16360 38926 ft 520 kts 139°
2026-04-22 03:38 18.00605 62.21372 38928 ft 520 kts 139°
2026-04-22 03:38 17.95164 62.26379 38927 ft 520 kts 139°
2026-04-22 03:39 17.89725 62.31381 38931 ft 519 kts 139°
2026-04-22 03:39 17.84291 62.36374 38931 ft 519 kts 139°
2026-04-22 03:40 17.78853 62.41366 38931 ft 519 kts 139°
2026-04-22 03:40 17.73417 62.46352 38932 ft 519 kts 139°
2026-04-22 03:41 17.67981 62.51334 38926 ft 519 kts 139°
2026-04-22 03:41 17.62548 62.56309 38941 ft 519 kts 139°
2026-04-22 03:42 17.57112 62.61283 38936 ft 519 kts 139°
2026-04-22 03:42 17.51675 62.66253 38937 ft 518 kts 139°
2026-04-22 03:43 17.46240 62.71218 38935 ft 518 kts 139°
2026-04-22 03:43 17.40805 62.76177 38934 ft 518 kts 139°
2026-04-22 03:44 17.35411 62.81097 38938 ft 518 kts 139°
2026-04-22 03:44 17.29977 62.86048 38941 ft 518 kts 138°
2026-04-22 03:45 17.24542 62.90997 38938 ft 518 kts 138°
2026-04-22 03:45 17.19107 62.95941 38940 ft 518 kts 138°
2026-04-22 03:46 17.13673 63.00881 38929 ft 518 kts 138°
2026-04-22 03:46 17.08240 63.05817 38938 ft 517 kts 138°
2026-04-22 03:47 17.02804 63.10752 38940 ft 518 kts 138°
2026-04-22 03:47 16.97331 63.15641 38944 ft 518 kts 139°
2026-04-22 03:48 16.91779 63.20433 38936 ft 518 kts 140°
2026-04-22 03:48 16.86219 63.25212 38937 ft 518 kts 140°
2026-04-22 03:49 16.80668 63.30005 38940 ft 518 kts 140°
2026-04-22 03:49 16.75127 63.34803 38939 ft 518 kts 140°
2026-04-22 03:50 16.69586 63.39598 38937 ft 517 kts 140°
2026-04-22 03:50 16.64044 63.44388 38948 ft 517 kts 140°
2026-04-22 03:51 16.58501 63.49175 38931 ft 517 kts 140°
2026-04-22 03:51 16.52993 63.53928 38939 ft 517 kts 140°
2026-04-22 03:52 16.47450 63.58708 38938 ft 517 kts 140°
2026-04-22 03:52 16.41900 63.63489 38937 ft 518 kts 140°
2026-04-22 03:53 16.36352 63.68266 38940 ft 518 kts 140°
2026-04-22 03:53 16.30799 63.73043 38934 ft 518 kts 140°
2026-04-22 03:54 16.25246 63.77817 38942 ft 518 kts 140°
2026-04-22 03:54 16.19688 63.82591 38936 ft 518 kts 140°
2026-04-22 03:55 16.14129 63.87362 38940 ft 518 kts 140°
2026-04-22 03:55 16.08572 63.92128 38940 ft 518 kts 140°
2026-04-22 03:56 16.03014 63.96892 38928 ft 518 kts 140°
2026-04-22 03:56 15.97456 64.01652 38935 ft 518 kts 140°
2026-04-22 03:57 15.91899 64.06407 38952 ft 517 kts 140°
2026-04-22 03:57 15.86380 64.11127 38936 ft 517 kts 140°
2026-04-22 03:58 15.80828 64.15870 38936 ft 516 kts 140°
2026-04-22 03:58 15.75286 64.20603 38931 ft 516 kts 140°
2026-04-22 03:59 15.69748 64.25328 38933 ft 515 kts 140°
2026-04-22 03:59 15.64212 64.30048 38938 ft 515 kts 140°
2026-04-22 04:00 15.58678 64.34763 38937 ft 515 kts 140°
2026-04-22 04:00 15.53139 64.39479 38943 ft 515 kts 140°
2026-04-22 04:01 15.47602 64.44190 38934 ft 515 kts 140°
2026-04-22 04:01 15.42059 64.48902 38928 ft 515 kts 140°
2026-04-22 04:02 15.36518 64.53610 38938 ft 515 kts 140°
2026-04-22 04:02 15.30972 64.58319 38937 ft 516 kts 140°
2026-04-22 04:03 15.25420 64.63029 38934 ft 516 kts 140°
2026-04-22 04:03 15.19906 64.67704 38932 ft 516 kts 140°
2026-04-22 04:04 15.14349 64.72411 38926 ft 516 kts 140°
2026-04-22 04:04 15.08792 64.77116 38935 ft 516 kts 140°
2026-04-22 04:05 15.03227 64.81824 38932 ft 517 kts 140°
2026-04-22 04:05 14.97660 64.86531 38931 ft 517 kts 140°
2026-04-22 04:06 14.92086 64.91240 38934 ft 517 kts 140°
2026-04-22 04:06 14.86510 64.95948 38924 ft 517 kts 141°
2026-04-22 04:07 14.80934 65.00653 38937 ft 517 kts 141°
2026-04-22 04:07 14.75356 65.05356 38931 ft 518 kts 141°
2026-04-22 04:08 14.69776 65.10057 38934 ft 517 kts 141°
2026-04-22 04:08 14.64198 65.14755 38929 ft 517 kts 141°
2026-04-22 04:09 14.58620 65.19449 38928 ft 517 kts 141°
2026-04-22 04:09 14.53078 65.24106 38926 ft 517 kts 141°
2026-04-22 04:10 14.47498 65.28791 38928 ft 517 kts 141°
2026-04-22 04:10 14.41918 65.33476 38932 ft 517 kts 141°
2026-04-22 04:11 14.36336 65.38160 38927 ft 517 kts 141°
2026-04-22 04:11 14.30754 65.42841 38925 ft 517 kts 141°
2026-04-22 04:12 14.25173 65.47518 38917 ft 517 kts 141°
2026-04-22 04:12 14.19593 65.52191 38926 ft 517 kts 141°
2026-04-22 04:13 14.14012 65.56861 38929 ft 517 kts 141°
2026-04-22 04:13 14.08433 65.61527 38937 ft 517 kts 142°
2026-04-22 04:14 14.02849 65.66194 38929 ft 517 kts 142°
2026-04-22 04:14 13.98210 65.70069 38924 ft 517 kts 142°
2026-04-22 04:15 13.92631 65.74726 38927 ft 516 kts 142°
2026-04-22 04:15 13.86152 65.80131 38928 ft 516 kts 142°
2026-04-22 04:16 13.77794 65.87098 38928 ft 515 kts 142°
2026-04-22 04:17 13.72224 65.91737 38926 ft 515 kts 142°
2026-04-22 04:17 13.67558 65.95621 38936 ft 515 kts 142°
2026-04-22 04:18 13.62030 66.00220 38929 ft 514 kts 142°
2026-04-22 04:18 13.56468 66.04844 38927 ft 514 kts 142°
2026-04-22 04:19 13.50913 66.09459 38926 ft 513 kts 142°
2026-04-22 04:19 13.45359 66.14071 38925 ft 513 kts 142°
2026-04-22 04:20 13.39809 66.18677 38923 ft 513 kts 142°
2026-04-22 04:20 13.34262 66.23277 38914 ft 512 kts 142°
2026-04-22 04:21 13.28720 66.27870 38934 ft 512 kts 143°
2026-04-22 04:21 13.23184 66.32456 38924 ft 511 kts 143°
2026-04-22 04:22 13.17652 66.37036 38923 ft 511 kts 143°
2026-04-22 04:22 13.12124 66.41609 38923 ft 510 kts 143°
2026-04-22 04:23 13.06600 66.46177 38903 ft 510 kts 143°
2026-04-22 04:23 13.01081 66.50738 38923 ft 509 kts 143°
2026-04-22 04:24 12.95601 66.55263 38921 ft 509 kts 143°
2026-04-22 04:24 12.90087 66.59814 38933 ft 508 kts 143°
2026-04-22 04:25 12.84582 66.64356 38916 ft 508 kts 143°
2026-04-22 04:25 12.79085 66.68888 38920 ft 507 kts 143°
2026-04-22 04:26 12.73594 66.73412 38911 ft 506 kts 143°
2026-04-22 04:26 12.68115 66.77924 38917 ft 505 kts 143°
2026-04-22 04:27 12.62644 66.82427 38922 ft 504 kts 143°
2026-04-22 04:27 12.57176 66.86924 38919 ft 504 kts 143°
2026-04-22 04:28 12.51710 66.91418 38925 ft 503 kts 143°
2026-04-22 04:28 12.46255 66.95900 38919 ft 503 kts 143°
2026-04-22 04:29 12.40811 67.00371 38905 ft 501 kts 144°
2026-04-22 04:29 12.35381 67.04828 38911 ft 500 kts 144°
2026-04-22 04:30 12.29965 67.09270 38914 ft 499 kts 144°
2026-04-22 04:30 12.24560 67.13701 38916 ft 498 kts 144°
2026-04-22 04:31 12.19157 67.18129 38932 ft 497 kts 144°
2026-04-22 04:31 12.13758 67.22551 38908 ft 497 kts 144°
2026-04-22 04:32 12.08370 67.26962 38914 ft 496 kts 144°
2026-04-22 04:32 12.02997 67.31358 38915 ft 494 kts 144°
2026-04-22 04:33 11.97631 67.35747 38904 ft 494 kts 144°
2026-04-22 04:33 11.92309 67.40095 38915 ft 493 kts 144°
2026-04-22 04:34 11.86959 67.44462 38916 ft 492 kts 144°
2026-04-22 04:34 11.81614 67.48825 38894 ft 492 kts 144°
2026-04-22 04:35 11.76275 67.53182 38911 ft 491 kts 144°
2026-04-22 04:35 11.70945 67.57528 38915 ft 490 kts 145°
2026-04-22 04:36 11.65629 67.61863 38908 ft 489 kts 145°
2026-04-22 04:36 11.60324 67.66186 38909 ft 488 kts 145°
2026-04-22 04:37 11.55030 67.70498 38911 ft 487 kts 145°
2026-04-22 04:37 11.49742 67.74802 38893 ft 486 kts 145°
2026-04-22 04:38 11.44469 67.79093 38901 ft 485 kts 145°
2026-04-22 04:38 11.39201 67.83376 38907 ft 484 kts 145°
2026-04-22 04:39 11.33941 67.87651 38909 ft 484 kts 145°
2026-04-22 04:39 11.28682 67.91923 38907 ft 483 kts 145°
2026-04-22 04:40 11.23422 67.96194 38904 ft 484 kts 145°
2026-04-22 04:40 11.18158 68.00466 38883 ft 484 kts 146°
2026-04-22 04:41 11.12930 68.04708 38897 ft 483 kts 146°
2026-04-22 04:41 11.07670 68.08973 38906 ft 483 kts 146°
2026-04-22 04:42 11.02410 68.13236 38901 ft 483 kts 146°
2026-04-22 04:42 10.97146 68.17500 38901 ft 483 kts 146°
2026-04-22 04:43 10.91887 68.21759 38899 ft 483 kts 146°
2026-04-22 04:43 10.86630 68.26014 38905 ft 483 kts 146°
2026-04-22 04:44 10.81368 68.30270 38920 ft 486 kts 146°
2026-04-22 04:44 10.78713 68.32415 39070 ft 488 kts 146°
2026-04-22 04:44 10.76059 68.34561 39308 ft 487 kts 146°
2026-04-22 04:44 10.73413 68.36700 39581 ft 485 kts 146°
2026-04-22 04:45 10.70772 68.38836 39834 ft 485 kts 146°
2026-04-22 04:45 10.68131 68.40970 40055 ft 485 kts 146°
2026-04-22 04:45 10.65491 68.43102 40249 ft 485 kts 146°
2026-04-22 04:45 10.62851 68.45234 40477 ft 484 kts 146°
2026-04-22 04:46 10.60213 68.47364 40697 ft 484 kts 146°
2026-04-22 04:46 10.57576 68.49492 40824 ft 486 kts 146°
2026-04-22 04:46 10.54920 68.51634 40855 ft 488 kts 146°
2026-04-22 04:47 10.49606 68.55921 40886 ft 483 kts 146°
2026-04-22 04:47 10.44395 68.60129 40897 ft 477 kts 146°
2026-04-22 04:48 10.39202 68.64314 40904 ft 476 kts 146°
2026-04-22 04:48 10.34010 68.68494 40904 ft 476 kts 146°
2026-04-22 04:49 10.28813 68.72679 40905 ft 477 kts 146°
2026-04-22 04:49 10.23605 68.76871 40900 ft 478 kts 146°
2026-04-22 04:50 10.18425 68.81039 40894 ft 479 kts 146°
2026-04-22 04:50 10.13201 68.85240 40901 ft 479 kts 146°
2026-04-22 04:51 10.07975 68.89442 40904 ft 479 kts 146°
2026-04-22 04:51 10.02749 68.93642 40897 ft 479 kts 146°
2026-04-22 04:52 9.97532 68.97834 40895 ft 478 kts 146°
2026-04-22 04:52 9.92320 69.02019 40895 ft 477 kts 146°
2026-04-22 04:53 9.87114 69.06197 40883 ft 477 kts 146°
2026-04-22 04:53 9.81919 69.10366 40895 ft 476 kts 146°
2026-04-22 04:54 9.76727 69.14531 40898 ft 476 kts 146°
2026-04-22 04:54 9.71535 69.18692 40899 ft 476 kts 146°
2026-04-22 04:55 9.66339 69.22849 40905 ft 476 kts 147°
2026-04-22 04:55 9.61182 69.26975 40897 ft 476 kts 147°
2026-04-22 04:56 9.55990 69.31128 40894 ft 475 kts 147°
2026-04-22 04:56 9.50801 69.35277 40893 ft 475 kts 146°
2026-04-22 04:57 9.45615 69.39423 40898 ft 475 kts 146°
2026-04-22 04:57 9.40428 69.43568 40900 ft 475 kts 146°
2026-04-22 04:58 9.35239 69.47714 40900 ft 475 kts 146°
2026-04-22 04:58 9.30048 69.51858 40899 ft 475 kts 146°
2026-04-22 04:59 9.24859 69.56000 40902 ft 475 kts 146°
2026-04-22 04:59 9.19677 69.60135 40888 ft 474 kts 146°
2026-04-22 05:00 9.14506 69.64259 40898 ft 473 kts 146°
2026-04-22 05:00 9.09341 69.68377 40902 ft 472 kts 146°
2026-04-22 05:01 9.04178 69.72491 40901 ft 472 kts 146°
2026-04-22 05:01 8.99054 69.76573 40896 ft 472 kts 146°
2026-04-22 05:02 8.93894 69.80682 40899 ft 472 kts 146°
2026-04-22 05:02 8.88733 69.84791 40886 ft 472 kts 146°
2026-04-22 05:03 8.83573 69.88897 40906 ft 472 kts 146°
2026-04-22 05:03 8.78418 69.92997 40897 ft 471 kts 146°
2026-04-22 05:04 8.73270 69.97091 40894 ft 471 kts 146°
2026-04-22 05:04 8.68127 70.01179 40896 ft 470 kts 146°
2026-04-22 05:05 8.62988 70.05263 40898 ft 470 kts 146°
2026-04-22 05:05 8.57853 70.09342 40898 ft 469 kts 146°
2026-04-22 05:06 8.52724 70.13415 40898 ft 469 kts 146°
2026-04-22 05:06 8.47600 70.17482 40898 ft 468 kts 146°
2026-04-22 05:07 8.42482 70.21543 40905 ft 467 kts 146°
2026-04-22 05:07 8.37376 70.25593 40897 ft 466 kts 146°
2026-04-22 05:08 8.33142 70.28951 40894 ft 465 kts 146°
2026-04-22 05:08 8.28056 70.32983 40895 ft 464 kts 146°
2026-04-22 05:09 8.22980 70.37005 40898 ft 463 kts 146°
2026-04-22 05:09 8.17912 70.41020 40899 ft 463 kts 146°
2026-04-22 05:10 8.12849 70.45029 40896 ft 463 kts 146°
2026-04-22 05:10 8.07786 70.49038 40900 ft 463 kts 146°
2026-04-22 05:11 8.02721 70.53046 40898 ft 463 kts 146°
2026-04-22 05:11 7.97653 70.57055 40902 ft 463 kts 146°
2026-04-22 05:12 7.92617 70.61038 40897 ft 463 kts 146°
2026-04-22 05:12 7.87544 70.65049 40888 ft 463 kts 146°
2026-04-22 05:13 7.82475 70.69056 40898 ft 463 kts 146°
2026-04-22 05:13 7.77407 70.73061 40899 ft 463 kts 146°
2026-04-22 05:14 7.72339 70.77064 40899 ft 463 kts 146°
2026-04-22 05:14 7.67270 70.81067 40896 ft 463 kts 146°
2026-04-22 05:15 7.62201 70.85069 40899 ft 463 kts 146°
2026-04-22 05:15 7.57137 70.89067 40903 ft 462 kts 146°
2026-04-22 05:16 7.52077 70.93060 40896 ft 462 kts 146°
2026-04-22 05:16 7.47016 70.97048 40898 ft 461 kts 146°
2026-04-22 05:17 7.41959 71.01025 40898 ft 461 kts 146°
2026-04-22 05:17 7.36909 71.04996 40898 ft 460 kts 146°
2026-04-22 05:18 7.29340 71.10948 40896 ft 460 kts 146°
2026-04-22 05:18 7.24295 71.14914 40896 ft 460 kts 146°
2026-04-22 05:19 7.19252 71.18878 40895 ft 460 kts 146°
2026-04-22 05:19 7.14242 71.22815 40904 ft 460 kts 146°
2026-04-22 05:20 7.09197 71.26778 40897 ft 460 kts 146°
2026-04-22 05:20 7.04148 71.30743 40895 ft 460 kts 146°
2026-04-22 05:21 6.99098 71.34708 40897 ft 461 kts 146°
2026-04-22 05:21 6.94042 71.38676 40896 ft 461 kts 146°
2026-04-22 05:22 6.88987 71.42643 40899 ft 461 kts 146°
2026-04-22 05:22 6.83930 71.46610 40890 ft 461 kts 146°
2026-04-22 05:23 6.78869 71.50579 40896 ft 461 kts 146°
2026-04-22 05:23 6.73804 71.54550 40896 ft 462 kts 146°
2026-04-22 05:24 6.68739 71.58520 40895 ft 462 kts 146°
2026-04-22 05:24 6.63669 71.62493 40895 ft 462 kts 146°
2026-04-22 05:25 6.58596 71.66467 40896 ft 462 kts 146°
2026-04-22 05:25 6.53523 71.70440 40897 ft 462 kts 146°
2026-04-22 05:26 6.48484 71.74386 40894 ft 462 kts 146°
2026-04-22 05:26 6.43413 71.78357 40900 ft 462 kts 146°
2026-04-22 05:27 6.38342 71.82326 40894 ft 462 kts 146°
2026-04-22 05:27 6.33033 71.85884 40897 ft 457 kts 155°
2026-04-22 05:28 6.27429 71.88868 40896 ft 456 kts 156°
2026-04-22 05:28 6.21827 71.91860 40915 ft 456 kts 155°
2026-04-22 05:29 6.16265 71.94936 40892 ft 456 kts 155°
2026-04-22 05:29 6.10726 71.98037 40897 ft 456 kts 154°
2026-04-22 05:30 6.05193 72.01135 40896 ft 455 kts 154°
2026-04-22 05:30 5.99666 72.04224 40896 ft 454 kts 154°
2026-04-22 05:31 5.94142 72.07310 40892 ft 454 kts 154°
2026-04-22 05:31 5.88624 72.10392 40893 ft 454 kts 154°
2026-04-22 05:32 5.83110 72.13468 40893 ft 453 kts 155°
2026-04-22 05:32 5.77593 72.16543 40893 ft 453 kts 154°
2026-04-22 05:33 5.72075 72.19618 40894 ft 454 kts 154°
2026-04-22 05:33 5.69295 72.21167 40336 ft 461 kts 154°
2026-04-22 05:33 5.66494 72.22727 39706 ft 459 kts 154°
2026-04-22 05:34 5.63713 72.24278 39217 ft 454 kts 154°
2026-04-22 05:34 5.60968 72.25811 38734 ft 449 kts 154°
2026-04-22 05:34 5.58251 72.27326 38210 ft 444 kts 154°
2026-04-22 05:34 5.55563 72.28825 37709 ft 439 kts 153°
2026-04-22 05:35 5.52909 72.30304 37240 ft 434 kts 153°
2026-04-22 05:35 5.50286 72.31765 36789 ft 429 kts 153°
2026-04-22 05:35 5.47690 72.33211 36350 ft 424 kts 153°
2026-04-22 05:35 5.45125 72.34639 35921 ft 420 kts 153°
2026-04-22 05:36 5.42584 72.36053 35496 ft 416 kts 153°
2026-04-22 05:36 5.40066 72.37454 35043 ft 412 kts 152°
2026-04-22 05:36 5.37601 72.38827 34605 ft 409 kts 152°
2026-04-22 05:36 5.35119 72.40209 34154 ft 407 kts 152°
2026-04-22 05:37 5.32653 72.41581 33681 ft 404 kts 152°
2026-04-22 05:37 5.30205 72.42944 33210 ft 401 kts 152°
2026-04-22 05:37 5.27778 72.44296 32771 ft 397 kts 153°
2026-04-22 05:37 5.25373 72.45635 32328 ft 394 kts 153°
2026-04-22 05:38 5.22989 72.46962 31898 ft 390 kts 153°
2026-04-22 05:38 5.20623 72.48279 31475 ft 387 kts 153°
2026-04-22 05:38 5.18274 72.49586 31057 ft 385 kts 153°
2026-04-22 05:38 5.15938 72.50886 30636 ft 383 kts 154°
2026-04-22 05:39 5.13614 72.52178 30211 ft 381 kts 154°
2026-04-22 05:39 5.11299 72.53466 29765 ft 380 kts 154°
2026-04-22 05:39 5.08992 72.54749 29285 ft 378 kts 154°
2026-04-22 05:39 5.06694 72.56026 28830 ft 377 kts 154°
2026-04-22 05:40 5.04407 72.57298 28394 ft 375 kts 154°
2026-04-22 05:40 5.02131 72.58563 27971 ft 373 kts 154°
2026-04-22 05:40 4.99863 72.59824 27558 ft 372 kts 154°
2026-04-22 05:40 4.97606 72.61079 27131 ft 370 kts 153°
2026-04-22 05:41 4.95356 72.62329 26752 ft 369 kts 153°
2026-04-22 05:41 4.93111 72.63577 26353 ft 369 kts 153°
2026-04-22 05:41 4.90870 72.64823 25960 ft 368 kts 153°
2026-04-22 05:41 4.88633 72.66066 25591 ft 367 kts 153°
2026-04-22 05:42 4.86397 72.67309 25172 ft 368 kts 153°
2026-04-22 05:42 4.84191 72.68535 24796 ft 368 kts 153°
2026-04-22 05:42 4.81953 72.69778 24416 ft 368 kts 153°
2026-04-22 05:42 4.79711 72.71024 24025 ft 368 kts 153°
2026-04-22 05:43 4.77469 72.72269 23645 ft 369 kts 153°
2026-04-22 05:43 4.75225 72.73516 23234 ft 369 kts 153°
2026-04-22 05:43 4.72979 72.74764 22816 ft 369 kts 152°
2026-04-22 05:43 4.70740 72.76007 22432 ft 368 kts 152°
2026-04-22 05:44 4.68503 72.77250 22041 ft 367 kts 152°
2026-04-22 05:44 4.66272 72.78489 21660 ft 366 kts 152°
2026-04-22 05:44 4.64044 72.79726 21280 ft 366 kts 152°
2026-04-22 05:44 4.61818 72.80963 20901 ft 365 kts 152°
2026-04-22 05:45 4.59594 72.82197 20519 ft 365 kts 152°
2026-04-22 05:45 4.57373 72.83430 20141 ft 365 kts 152°
2026-04-22 05:45 4.55151 72.84664 19756 ft 365 kts 152°
2026-04-22 05:45 4.52929 72.85898 19367 ft 365 kts 152°
2026-04-22 05:46 4.50705 72.87133 18971 ft 366 kts 152°
2026-04-22 05:46 4.48474 72.88371 18572 ft 367 kts 151°
2026-04-22 05:46 4.46240 72.89611 18182 ft 367 kts 151°
2026-04-22 05:46 4.44003 72.90853 17743 ft 368 kts 151°
2026-04-22 05:47 4.41768 72.92094 17335 ft 367 kts 151°
2026-04-22 05:47 4.39537 72.93332 16927 ft 366 kts 151°
2026-04-22 05:47 4.37315 72.94565 16523 ft 365 kts 151°
2026-04-22 05:47 4.35096 72.95796 16124 ft 364 kts 151°
2026-04-22 05:48 4.32888 72.97021 15727 ft 363 kts 151°
2026-04-22 05:48 4.30682 72.98245 15336 ft 362 kts 151°
2026-04-22 05:48 4.28486 72.99463 14940 ft 361 kts 151°
2026-04-22 05:48 4.26294 73.00679 14537 ft 360 kts 151°
2026-04-22 05:49 4.24103 73.01895 14139 ft 359 kts 151°
2026-04-22 05:49 4.21919 73.03106 13743 ft 359 kts 151°
2026-04-22 05:49 4.19735 73.04317 13289 ft 358 kts 151°
2026-04-22 05:49 4.17561 73.05523 12877 ft 356 kts 150°
2026-04-22 05:50 4.15400 73.06721 12466 ft 354 kts 150°
2026-04-22 05:50 4.13247 73.07915 12079 ft 352 kts 150°
2026-04-22 05:50 4.11112 73.09099 11719 ft 349 kts 150°
2026-04-22 05:50 4.08992 73.10276 11346 ft 348 kts 150°
2026-04-22 05:51 4.06880 73.11446 10963 ft 346 kts 150°
2026-04-22 05:51 4.04849 73.12572 10590 ft 345 kts 150°
2026-04-22 05:51 4.02779 73.13720 10224 ft 343 kts 150°
2026-04-22 05:51 4.00717 73.14863 10073 ft 335 kts 150°
2026-04-22 05:52 3.98699 73.15981 9841 ft 329 kts 150°
2026-04-22 05:52 3.96783 73.17147 9557 ft 314 kts 139°
2026-04-22 05:52 3.95497 73.18793 9199 ft 292 kts 114°
2026-04-22 05:52 3.94911 73.20677 8782 ft 277 kts 98°
2026-04-22 05:53 3.94788 73.22556 8479 ft 268 kts 89°
2026-04-22 05:53 3.94808 73.24416 8185 ft 266 kts 89°
2026-04-22 05:53 3.94832 73.26268 7889 ft 265 kts 89°
2026-04-22 05:53 3.94845 73.28111 7600 ft 264 kts 89°
2026-04-22 05:54 3.94852 73.29946 7312 ft 263 kts 89°
2026-04-22 05:54 3.94861 73.31750 7016 ft 254 kts 89°
2026-04-22 05:54 3.94867 73.33480 6742 ft 245 kts 89°
2026-04-22 05:54 3.94873 73.35176 6474 ft 243 kts 89°
2026-04-22 05:55 3.94878 73.36891 6225 ft 254 kts 89°
2026-04-22 05:55 3.94883 73.38705 5937 ft 265 kts 89°
2026-04-22 05:55 3.94887 73.40540 5636 ft 265 kts 89°
2026-04-22 05:55 3.94890 73.42355 5362 ft 263 kts 89°
2026-04-22 05:56 3.94892 73.44176 5110 ft 260 kts 89°
2026-04-22 05:56 3.94893 73.45977 4860 ft 254 kts 90°
2026-04-22 05:56 3.94894 73.47709 4622 ft 246 kts 89°
2026-04-22 05:56 3.94895 73.49379 4373 ft 233 kts 90°
2026-04-22 05:57 3.94979 73.50953 4147 ft 222 kts 74°
2026-04-22 05:57 3.95774 73.52241 3953 ft 221 kts 39°
2026-04-22 05:57 3.97169 73.52833 3780 ft 217 kts 11°
2026-04-22 05:57 3.98653 73.53019 3515 ft 215 kts
2026-04-22 05:58 4.00140 73.53098 3281 ft 212 kts
2026-04-22 05:58 4.01593 73.53111 3137 ft 205 kts
2026-04-22 05:58 4.02528 73.53111 3005 ft 202 kts
2026-04-22 05:58 4.03928 73.53109 2748 ft 200 kts
2026-04-22 05:59 4.05289 73.53107 2516 ft 190 kts
2026-04-22 05:59 4.06558 73.53106 2262 ft 174 kts
2026-04-22 05:59 4.07716 73.53105 2042 ft 160 kts
2026-04-22 05:59 4.08798 73.53104 1878 ft 152 kts
2026-04-22 06:00 4.09832 73.53105 1669 ft 143 kts
2026-04-22 06:00 4.10801 73.53104 1497 ft 139 kts
2026-04-22 06:00 4.11771 73.53104 1322 ft 139 kts
2026-04-22 06:00 4.12744 73.53104 1143 ft 140 kts
2026-04-22 06:01 4.13712 73.53103 967 ft 138 kts
2026-04-22 06:01 4.14670 73.53103 792 ft 138 kts
2026-04-22 06:01 4.15630 73.53102 631 ft 138 kts
2026-04-22 06:01 4.16587 73.53100 440 ft 138 kts
2026-04-22 06:02 4.17543 73.53098 238 ft 137 kts
2026-04-22 06:02 4.18510 73.53098 71 ft 139 kts
2026-04-22 06:02 4.19421 73.53102 17 ft 118 kts
2026-04-22 06:02 4.20092 73.53100 17 ft 74 kts 360°
2026-04-22 06:03 4.20474 73.53100 17 ft 46 kts
2026-04-22 06:03 4.20768 73.53101 17 ft 31 kts
2026-04-22 06:03 4.20905 73.53092 17 ft 13 kts 329°
2026-04-22 06:03 4.20927 73.53007 17 ft 13 kts 272°
2026-04-22 06:04 4.20908 73.52923 18 ft 13 kts 221°
2026-04-22 06:04 4.20821 73.52894 17 ft 13 kts 191°
2026-04-22 06:04 4.20726 73.52890 17 ft 17 kts 178°
2026-04-22 06:04 4.20601 73.52892 17 ft 18 kts 179°
2026-04-22 06:05 4.20476 73.52895 17 ft 18 kts 179°
2026-04-22 06:05 4.20351 73.52896 17 ft 18 kts 180°
2026-04-22 06:05 4.20227 73.52896 17 ft 18 kts 179°
2026-04-22 06:05 4.20102 73.52899 17 ft 18 kts 179°
2026-04-22 06:06 4.19977 73.52900 17 ft 18 kts 179°
2026-04-22 06:06 4.19852 73.52902 17 ft 18 kts 179°
2026-04-22 06:06 4.19727 73.52905 17 ft 18 kts 178°
2026-04-22 06:06 4.19602 73.52908 17 ft 18 kts 178°
2026-04-22 06:07 4.19478 73.52911 17 ft 18 kts 179°
2026-04-22 06:07 4.19353 73.52913 17 ft 18 kts 179°
2026-04-22 06:07 4.19228 73.52915 17 ft 18 kts 179°
2026-04-22 06:07 4.19109 73.52916 17 ft 14 kts 179°
2026-04-22 06:08 4.19042 73.52889 17 ft 10 kts 249°
2026-04-22 06:08 4.18991 73.52848 17 ft 10 kts 185°
2026-04-22 06:08 4.18920 73.52850 17 ft 12 kts 178°
2026-04-22 06:08 4.18834 73.52852 17 ft 13 kts 180°
2026-04-22 06:09 4.18738 73.52853 17 ft 19 kts 178°
2026-04-22 06:09 4.18600 73.52856 17 ft 17 kts 178°
2026-04-22 06:09 4.18483 73.52858 17 ft 17 kts 179°
2026-04-22 06:09 4.18367 73.52860 17 ft 17 kts 179°
2026-04-22 06:10 4.18268 73.52861 17 ft 11 kts 178°
2026-04-22 06:10 4.18217 73.52833 18 ft 9 kts 255°
2026-04-22 06:10 4.18213 73.52790 17 ft 3 kts 268°
2026-04-22 06:10 4.18213 73.52772 17 ft 1 kts 268°
2026-04-22 06:11 4.18213 73.52767 17 ft 0 kts 269°